OK2JF-6 Weather Reports


Display with metric or nautical units.
time (UTC)temp
F
wind
direction
speed
MPH
gust
MPH
rain 1hr
in
rain 24hr
in
rain mn
in
humidity
%
barometer
mb
20260905191103 32 0 0.0 0.0 0.00 0.00 0.00 1
20260905190903 60 266 2.0 3.0 0.00 0.20 0.20 67 1088.7
20260905190803 60 269 2.0 3.0 0.00 0.20 0.20 67 1088.7
20260905190703 60 271 2.0 3.0 0.00 0.20 0.20 67 1088.7
20260905190603 60 273 2.0 3.0 0.00 0.20 0.20 67 1088.7
20260905190503 60 272 2.0 3.0 0.00 0.20 0.20 67 1088.7
20260905190403 32 0 0.0 0.0 0.00 0.00 0.00 1
20260905190303 60 275 2.0 4.0 0.00 0.20 0.20 66 1088.7
20260905190203 60 273 2.0 4.0 0.00 0.20 0.20 66 1088.7
20260905190104 32 0 0.0 0.0 0.00 0.00 0.00 1
20260905190003 60 274 2.0 4.0 0.00 0.20 0.20 66 1088.7
20260905185903 32 0 0.0 0.0 0.00 0.00 0.00 1
20260905185803 60 277 2.0 4.0 0.00 0.20 0.20 66 1088.7
20260905185703 60 277 2.0 4.0 0.00 0.20 0.20 66 1088.7
20260905185603 60 278 2.0 4.0 0.00 0.20 0.20 66 1088.7
20260905185503 32 0 0.0 0.0 0.00 0.00 0.00 1
20260905185403 61 281 2.0 4.0 0.00 0.20 0.20 65 1088.7
20260905185305 61 280 2.0 4.0 0.00 0.20 0.20 65 1088.7
20260905185203 61 281 2.0 4.0 0.00 0.20 0.20 65 1088.7
20260905185103 32 0 0.0 0.0 0.00 0.00 0.00 1
20260905185003 32 0 0.0 0.0 0.00 0.00 0.00 1
20260905184903 61 281 3.0 7.0 0.00 0.20 0.20 66 1088.7
20260905184803 61 283 3.0 7.0 0.00 0.20 0.20 66 1088.7
20260905184703 32 0 0.0 0.0 0.00 0.00 0.00 1
20260905184603 32 0 0.0 0.0 0.00 0.00 0.00 1
20260905184503 61 283 3.0 7.0 0.00 0.20 0.20 65 1088.7
20260905184403 32 0 0.0 0.0 0.00 0.00 0.00 1
20260905184303 32 0 0.0 0.0 0.00 0.00 0.00 1
20260905184203 32 0 0.0 0.0 0.00 0.00 0.00 1
20260905184108 61 287 3.0 7.0 0.00 0.20 0.20 65 1088.7
20260905184003 61 290 3.0 7.0 0.00 0.20 0.20 65 1088.7
20260905183903 61 292 3.0 7.0 0.00 0.20 0.20 65 1088.7
20260905183803 32 0 0.0 0.0 0.00 0.00 0.00 1
20260905183703 61 290 3.0 6.0 0.00 0.20 0.20 65 1088.7
20260905183603 32 0 0.0 0.0 0.00 0.00 0.00 1
20260905183503 61 291 3.0 6.0 0.00 0.20 0.20 65 1088.7
20260905183403 32 0 0.0 0.0 0.00 0.00 0.00 1
20260905183303 32 0 0.0 0.0 0.00 0.00 0.00 1
20260905183203 61 290 3.0 6.0 0.00 0.20 0.20 64 1088.7
20260905183103 61 287 3.0 6.0 0.00 0.20 0.20 64 1088.7
20260905183003 32 0 0.0 0.0 0.00 0.00 0.00 1
20260905182908 32 0 0.0 0.0 0.00 0.00 0.00 1
20260905182903 61 287 3.0 6.0 0.00 0.20 0.20 64 1088.7
20260905182803 61 287 3.0 6.0 0.00 0.20 0.20 65 1088.7
20260905182713 32 0 0.0 0.0 0.00 0.00 0.00 1
20260905182703 61 286 3.0 6.0 0.00 0.20 0.20 64 1088.7
20260905182603 61 284 3.0 6.0 0.00 0.20 0.20 64 1088.7
20260905182503 61 283 3.0 6.0 0.00 0.20 0.20 64 1088.7
20260905182403 32 0 0.0 0.0 0.00 0.00 0.00 1
20260905182305 61 283 3.0 6.0 0.00 0.20 0.20 64 1088.7
20260905182203 32 0 0.0 0.0 0.00 0.00 0.00 1
20260905182103 32 0 0.0 0.0 0.00 0.00 0.00 1
20260905182003 32 0 0.0 0.0 0.00 0.00 0.00 1
20260905181903 32 0 0.0 0.0 0.00 0.00 0.00 1
20260905181803 62 281 2.0 6.0 0.00 0.20 0.20 64 1088.7
20260905181703 32 0 0.0 0.0 0.00 0.00 0.00 1
20260905181603 62 282 2.0 6.0 0.00 0.20 0.20 64 1088.7
20260905181503 32 0 0.0 0.0 0.00 0.00 0.00 1
20260905181303 62 280 2.0 4.0 0.00 0.20 0.20 64 1088.7
20260905181203 62 276 2.0 4.0 0.00 0.20 0.20 64 1088.7
20260905181103 32 0 0.0 0.0 0.00 0.00 0.00 1
20260905181003 62 274 3.0 6.0 0.00 0.20 0.20 63 1088.7
20260905180903 32 0 0.0 0.0 0.00 0.00 0.00 1
20260905180803 32 0 0.0 0.0 0.00 0.00 0.00 1
20260905180703 62 274 3.0 6.0 0.00 0.20 0.20 63 1088.7
20260905180603 32 0 0.0 0.0 0.00 0.00 0.00 1
20260905180517 62 271 3.0 6.0 0.00 0.20 0.20 63 1088.7
20260905180514 32 0 0.0 0.0 0.00 0.00 0.00 1
20260905180503 62 272 3.0 6.0 0.00 0.20 0.20 63 1088.7
20260905180403 32 0 0.0 0.0 0.00 0.00 0.00 1
20260905180203 62 272 3.0 7.0 0.00 0.20 0.20 63 1088.7
20260905180104 62 274 3.0 8.0 0.00 0.20 0.20 63 1088.7
20260905180018 62 275 3.0 8.0 0.00 0.20 0.20 63 1088.7
20260905180003 62 276 3.0 8.0 0.00 0.20 0.20 63 1088.7
20260905175903 62 275 3.0 8.0 0.00 0.20 0.20 63 1088.7
20260905175703 62 275 3.0 8.0 0.00 0.20 0.20 63 1088.7
20260905175603 32 0 0.0 0.0 0.00 0.00 0.00 1
20260905175503 32 0 0.0 0.0 0.00 0.00 0.00 1
20260905175403 32 0 0.0 0.0 0.00 0.00 0.00 1
20260905175306 62 279 3.0 8.0 0.00 0.20 0.20 62 1088.7
20260905175203 62 280 3.0 8.0 0.00 0.20 0.20 62 1088.7
20260905175103 32 0 0.0 0.0 0.00 0.00 0.00 1
20260905175003 63 283 4.0 9.0 0.00 0.20 0.20 62 1088.7
20260905174903 32 0 0.0 0.0 0.00 0.00 0.00 1
20260905174803 32 0 0.0 0.0 0.00 0.00 0.00 1
20260905174703 63 289 4.0 9.0 0.00 0.20 0.20 62 1088.7
20260905174603 32 0 0.0 0.0 0.00 0.00 0.00 1
20260905174503 63 290 3.0 9.0 0.00 0.20 0.20 62 1088.7
20260905174403 32 0 0.0 0.0 0.00 0.00 0.00 1
20260905174318 63 292 4.0 9.0 0.00 0.20 0.20 62 1088.7
20260905174304 63 293 4.0 9.0 0.00 0.20 0.20 62 1088.7
20260905174203 63 294 4.0 9.0 0.00 0.20 0.20 62 1088.7
20260905174103 32 0 0.0 0.0 0.00 0.00 0.00 1
20260905174003 32 0 0.0 0.0 0.00 0.00 0.00 1
20260905173903 63 293 4.0 9.0 0.00 0.20 0.20 61 1088.7
20260905173803 63 294 4.0 9.0 0.00 0.20 0.20 62 1088.7
20260905173703 32 0 0.0 0.0 0.00 0.00 0.00 1
20260905173603 32 0 0.0 0.0 0.00 0.00 0.00 1
20260905173503 32 0 0.0 0.0 0.00 0.00 0.00 1
20260905173417 63 294 4.0 9.0 0.00 0.20 0.20 61 1088.7
20260905173403 63 295 4.0 9.0 0.00 0.20 0.20 61 1088.7
20260905173303 64 293 4.0 9.0 0.00 0.20 0.20 61 1088.7
20260905173203 32 0 0.0 0.0 0.00 0.00 0.00 1
20260905173103 64 290 4.0 10.0 0.00 0.20 0.20 61 1088.7
20260905173003 32 0 0.0 0.0 0.00 0.00 0.00 1
20260905172903 64 290 5.0 10.0 0.00 0.20 0.20 61 1088.7
20260905172803 64 291 5.0 10.0 0.00 0.20 0.20 61 1088.7
20260905172703 64 291 5.0 10.0 0.00 0.20 0.20 61 1088.7
20260905172603 32 0 0.0 0.0 0.00 0.00 0.00 1
20260905172503 64 288 4.0 10.0 0.00 0.20 0.20 61 1088.7
20260905172417 64 287 4.0 10.0 0.00 0.20 0.20 60 1088.7
20260905172403 64 287 4.0 10.0 0.00 0.20 0.20 60 1088.7
20260905172305 64 286 5.0 10.0 0.00 0.20 0.20 61 1088.7
20260905172216 64 286 5.0 10.0 0.00 0.20 0.20 61 1088.7
20260905172103 64 287 4.0 10.0 0.00 0.20 0.20 61 1088.7
20260905172003 32 0 0.0 0.0 0.00 0.00 0.00 1
20260905171913 32 0 0.0 0.0 0.00 0.00 0.00 1
20260905171903 64 285 4.0 9.0 0.00 0.20 0.20 63 1088.7
20260905171803 32 0 0.0 0.0 0.00 0.00 0.00 1
20260905171703 64 282 4.0 9.0 0.00 0.20 0.20 63 1088.7
20260905171603 32 0 0.0 0.0 0.00 0.00 0.00 1
20260905171503 32 0 0.0 0.0 0.00 0.00 0.00 1
20260905171403 64 279 5.0 14.0 0.00 0.20 0.20 64 1088.7
20260905171303 32 0 0.0 0.0 0.00 0.00 0.00 1
20260905171203 65 279 5.0 14.0 0.00 0.20 0.20 63 1088.7
20260905171103 65 276 5.0 14.0 0.00 0.20 0.20 63 1088.7
20260905171018 65 273 5.0 14.0 0.00 0.20 0.20 64 1088.7
20260905171003 65 274 5.0 14.0 0.00 0.20 0.20 64 1088.7
20260905170903 65 272 5.0 14.0 0.00 0.20 0.20 64 1088.7
20260905170803 32 0 0.0 0.0 0.00 0.00 0.00 1
20260905170714 32 0 0.0 0.0 0.00 0.00 0.00 1
20260905170603 32 0 0.0 0.0 0.00 0.00 0.00 1
20260905170517 65 272 5.0 11.0 0.00 0.20 0.20 64 1088.7
20260905170503 65 271 5.0 11.0 0.00 0.20 0.20 64 1088.7
20260905170403 65 268 5.0 11.0 0.00 0.20 0.20 63 1088.7
20260905170318 65 268 5.0 11.0 0.00 0.20 0.20 63 1088.7
20260905170303 32 0 0.0 0.0 0.00 0.00 0.00 1
20260905170203 32 0 0.0 0.0 0.00 0.00 0.00 1
20260905170003 65 270 5.0 11.0 0.00 0.20 0.20 63 1088.7
20260905165903 65 272 5.0 11.0 0.00 0.20 0.20 63 1088.7
20260905165803 65 269 5.0 11.0 0.00 0.20 0.20 63 1088.7
20260905165703 65 265 5.0 11.0 0.00 0.20 0.20 63 1088.7
20260905165603 32 0 0.0 0.0 0.00 0.00 0.00 1
20260905165503 65 272 4.0 11.0 0.00 0.20 0.20 63 1088.7
20260905165403 65 276 4.0 11.0 0.00 0.20 0.20 63 1088.7
20260905165318 65 275 4.0 11.0 0.00 0.20 0.20 63 1088.7
20260905165306 32 0 0.0 0.0 0.00 0.00 0.00 1
20260905165203 32 0 0.0 0.0 0.00 0.00 0.00 1
20260905165103 32 0 0.0 0.0 0.00 0.00 0.00 1
20260905165003 32 0 0.0 0.0 0.00 0.00 0.00 1
20260905164903 65 274 4.0 10.0 0.00 0.20 0.20 63 1088.7
20260905164803 65 278 4.0 9.0 0.00 0.20 0.20 64 1088.7
20260905164703 32 0 0.0 0.0 0.00 0.00 0.00 1
20260905164604 32 0 0.0 0.0 0.00 0.00 0.00 1
20260905164503 65 279 4.0 13.0 0.00 0.20 0.20 64 1088.7
20260905164403 32 0 0.0 0.0 0.00 0.00 0.00 1
20260905164303 32 0 0.0 0.0 0.00 0.00 0.00 1
20260905164203 32 0 0.0 0.0 0.00 0.00 0.00 1
20260905164003 65 281 5.0 13.0 0.00 0.20 0.20 63 1088.7
20260905163903 32 0 0.0 0.0 0.00 0.00 0.00 1
20260905163803 32 0 0.0 0.0 0.00 0.00 0.00 1
20260905163703 65 278 5.0 13.0 0.00 0.20 0.20 63 1088.7
20260905163603 65 274 5.0 13.0 0.00 0.20 0.20 63 1088.7
20260905163503 32 0 0.0 0.0 0.00 0.00 0.00 1
20260905163403 32 0 0.0 0.0 0.00 0.00 0.00 1
20260905163303 32 0 0.0 0.0 0.00 0.00 0.00 1
20260905163203 65 273 5.0 10.0 0.00 0.20 0.20 63 1088.7
20260905163103 32 0 0.0 0.0 0.00 0.00 0.00 1
20260905163003 66 266 4.0 10.0 0.00 0.20 0.20 63 1088.7
20260905162903 66 263 4.0 10.0 0.00 0.20 0.20 63 1088.7
20260905162803 66 263 4.0 10.0 0.00 0.20 0.20 63 1088.7
20260905162704 32 0 0.0 0.0 0.00 0.00 0.00 1
20260905162603 32 0 0.0 0.0 0.00 0.00 0.00 1
20260905162503 66 268 5.0 13.0 0.00 0.20 0.20 63 1088.7
20260905162403 32 0 0.0 0.0 0.00 0.00 0.00 1
20260905162305 66 274 5.0 13.0 0.00 0.20 0.20 62 1088.7
20260905162218 66 272 5.0 13.0 0.00 0.20 0.20 62 1088.7
20260905162203 32 0 0.0 0.0 0.00 0.00 0.00 1
20260905162103 32 0 0.0 0.0 0.00 0.00 0.00 1
20260905162003 32 0 0.0 0.0 0.00 0.00 0.00 1
20260905161903 66 279 5.0 13.0 0.00 0.20 0.20 62 1088.7
20260905161803 66 281 5.0 13.0 0.00 0.20 0.20 62 1088.7
20260905161703 32 0 0.0 0.0 0.00 0.00 0.00 1
20260905161603 66 278 5.0 13.0 0.00 0.20 0.20 61 1088.7
20260905161503 66 277 4.0 10.0 0.00 0.20 0.20 62 1088.7
20260905161417 67 276 4.0 10.0 0.00 0.20 0.20 62 1088.7
20260905161403 67 275 4.0 10.0 0.00 0.20 0.20 62 1088.7
20260905161303 32 0 0.0 0.0 0.00 0.00 0.00 1
20260905161203 32 0 0.0 0.0 0.00 0.00 0.00 1
20260905161103 32 0 0.0 0.0 0.00 0.00 0.00 1
20260905161003 67 273 4.0 11.0 0.00 0.20 0.20 61 1088.7
20260905160903 32 0 0.0 0.0 0.00 0.00 0.00 1
20260905160803 67 260 4.0 13.0 0.00 0.20 0.20 61 1088.7
20260905160703 67 266 4.0 13.0 0.00 0.20 0.20 61 1088.7
20260905160603 67 264 4.0 13.0 0.00 0.20 0.20 60 1088.7
20260905160503 32 0 0.0 0.0 0.00 0.00 0.00 1
20260905160403 67 265 5.0 13.0 0.00 0.20 0.20 61 1088.7
20260905160303 67 265 5.0 13.0 0.00 0.20 0.20 60 1088.7
20260905160203 67 260 5.0 13.0 0.00 0.20 0.20 60 1088.7
20260905160004 67 261 5.0 13.0 0.00 0.20 0.20 60 1088.7
20260905155903 67 263 5.0 13.0 0.00 0.20 0.20 60 1088.7
20260905155803 32 0 0.0 0.0 0.00 0.00 0.00 1
20260905155703 67 263 5.0 13.0 0.00 0.20 0.20 59 1088.7
20260905155603 67 263 5.0 13.0 0.00 0.20 0.20 59 1088.7
20260905155503 67 263 5.0 13.0 0.00 0.20 0.20 59 1088.7
20260905155417 67 261 5.0 13.0 0.00 0.20 0.20 59 1088.7
20260905155403 32 0 0.0 0.0 0.00 0.00 0.00 1
20260905155306 67 260 5.0 13.0 0.00 0.20 0.20 59 1088.7
20260905155203 32 0 0.0 0.0 0.00 0.00 0.00 1
20260905155103 32 0 0.0 0.0 0.00 0.00 0.00 1
20260905155003 32 0 0.0 0.0 0.00 0.00 0.00 1
20260905154903 32 0 0.0 0.0 0.00 0.00 0.00 1
20260905154803 67 251 5.0 13.0 0.00 0.20 0.20 58 1088.7
20260905154703 67 246 5.0 13.0 0.00 0.20 0.20 58 1088.7
20260905154603 67 239 4.0 13.0 0.00 0.20 0.20 58 1088.7
20260905154503 67 237 4.0 13.0 0.00 0.20 0.20 58 1088.7
20260905154403 67 235 4.0 13.0 0.00 0.20 0.20 57 1088.7
20260905154303 32 0 0.0 0.0 0.00 0.00 0.00 1
20260905154203 68 239 5.0 13.0 0.00 0.20 0.20 57 1088.7
20260905154103 68 242 5.0 15.0 0.00 0.20 0.20 57 1088.7
20260905154003 32 0 0.0 0.0 0.00 0.00 0.00 1
20260905153903 68 240 5.0 17.0 0.00 0.20 0.20 57 1088.7
20260905153803 32 0 0.0 0.0 0.00 0.00 0.00 1
20260905153717 68 241 5.0 17.0 0.00 0.20 0.20 56 1088.7
20260905153703 32 0 0.0 0.0 0.00 0.00 0.00 1
20260905153617 68 241 5.0 17.0 0.00 0.20 0.20 56 1088.7
20260905153603 68 242 5.0 17.0 0.00 0.20 0.20 56 1088.7
20260905153403 32 0 0.0 0.0 0.00 0.00 0.00 1
20260905153303 32 0 0.0 0.0 0.00 0.00 0.00 1
20260905153212 32 0 0.0 0.0 0.00 0.00 0.00 1
20260905153203 68 240 4.0 17.0 0.00 0.20 0.20 56 1088.7
20260905153116 68 237 4.0 17.0 0.00 0.20 0.20 57 1088.7
20260905153103 68 240 4.0 17.0 0.00 0.20 0.20 57 1088.7
20260905153003 68 243 4.0 13.0 0.00 0.20 0.20 57 1088.7
20260905152903 32 0 0.0 0.0 0.00 0.00 0.00 1
20260905152803 32 0 0.0 0.0 0.00 0.00 0.00 1
20260905152717 68 230 6.0 17.0 0.00 0.20 0.20 57 1088.7
20260905152714 32 0 0.0 0.0 0.00 0.00 0.00 1
20260905152703 68 231 6.0 17.0 0.00 0.20 0.20 56 1088.7
20260905152617 68 227 6.0 17.0 0.00 0.20 0.20 56 1088.7
20260905152603 68 229 6.0 17.0 0.00 0.20 0.20 56 1088.7
20260905152403 32 0 0.0 0.0 0.00 0.00 0.00 1
20260905152306 32 0 0.0 0.0 0.00 0.00 0.00 1
20260905152218 68 243 6.0 17.0 0.00 0.20 0.20 57 1088.7
20260905152203 32 0 0.0 0.0 0.00 0.00 0.00 1
20260905152116 68 245 6.0 17.0 0.00 0.20 0.20 56 1088.7
20260905152103 32 0 0.0 0.0 0.00 0.00 0.00 1
20260905152003 32 0 0.0 0.0 0.00 0.00 0.00 1
20260905151918 68 249 6.0 17.0 0.00 0.20 0.20 57 1088.7
20260905151903 32 0 0.0 0.0 0.00 0.00 0.00 1
20260905151803 32 0 0.0 0.0 0.00 0.00 0.00 1
20260905151703 32 0 0.0 0.0 0.00 0.00 0.00 1
20260905151617 67 274 5.0 10.0 0.00 0.20 0.20 58 1088.7
20260905151603 67 275 5.0 10.0 0.00 0.20 0.20 58 1088.7
20260905151503 32 0 0.0 0.0 0.00 0.00 0.00 1
20260905151403 32 0 0.0 0.0 0.00 0.00 0.00 1
20260905151303 67 265 4.0 10.0 0.00 0.20 0.20 57 1088.7
20260905151203 67 265 4.0 10.0 0.00 0.20 0.20 57 1088.7
20260905151103 32 0 0.0 0.0 0.00 0.00 0.00 1
20260905151003 67 259 4.0 10.0 0.00 0.20 0.20 57 1088.7
20260905150917 67 253 3.0 10.0 0.00 0.20 0.20 57 1088.7
20260905150903 67 249 3.0 10.0 0.00 0.20 0.20 57 1088.7
20260905150803 67 235 3.0 10.0 0.00 0.20 0.20 57 1088.7
20260905150703 32 0 0.0 0.0 0.00 0.00 0.00 1
20260905150603 32 0 0.0 0.0 0.00 0.00 0.00 1
20260905150503 67 226 3.0 11.0 0.00 0.20 0.20 58 1088.7
20260905150403 67 231 4.0 16.0 0.00 0.20 0.20 57 1088.7
20260905150317 67 236 5.0 16.0 0.00 0.20 0.20 56 1088.7
20260905150303 67 236 5.0 16.0 0.00 0.20 0.20 57 1088.7
20260905150203 32 0 0.0 0.0 0.00 0.00 0.00 1
20260905150003 67 248 5.0 16.0 0.00 0.20 0.20 56 1088.7
20260905145903 32 0 0.0 0.0 0.00 0.00 0.00 1
20260905145818 67 258 6.0 18.0 0.00 0.20 0.20 56 1088.7
20260905145804 32 0 0.0 0.0 0.00 0.00 0.00 1
20260905145703 67 259 7.0 18.0 0.00 0.20 0.20 56 1088.7
20260905145604 32 0 0.0 0.0 0.00 0.00 0.00 1
20260905145503 67 258 6.0 18.0 0.00 0.20 0.20 56 1088.7
20260905145403 67 261 6.0 18.0 0.00 0.20 0.20 55 1088.7
20260905145317 67 260 6.0 18.0 0.00 0.20 0.20 56 1088.7
20260905145306 67 261 6.0 18.0 0.00 0.20 0.20 56 1088.7
20260905145203 32 0 0.0 0.0 0.00 0.00 0.00 1
20260905145118 67 267 7.0 24.0 0.00 0.20 0.20 55 1088.7
20260905145103 32 0 0.0 0.0 0.00 0.00 0.00 1
20260905145003 67 269 6.0 24.0 0.00 0.20 0.20 54 1088.7
20260905144903 32 0 0.0 0.0 0.00 0.00 0.00 1
20260905144803 32 0 0.0 0.0 0.00 0.00 0.00 1
20260905144703 32 0 0.0 0.0 0.00 0.00 0.00 1
20260905144603 32 0 0.0 0.0 0.00 0.00 0.00 1
20260905144503 67 264 6.0 24.0 0.00 0.20 0.20 54 1088.7
20260905144403 67 262 7.0 24.0 0.00 0.20 0.20 54 1088.7
20260905144303 67 261 6.0 24.0 0.00 0.20 0.20 53 1088.7
20260905144203 67 255 6.0 18.0 0.00 0.20 0.20 53 1088.7
20260905144103 67 247 6.0 18.0 0.00 0.20 0.20 54 1088.7
20260905144003 67 246 6.0 18.0 0.00 0.20 0.20 54 1088.7
20260905143903 67 241 6.0 16.0 0.00 0.20 0.20 54 1088.7
20260905143803 32 0 0.0 0.0 0.00 0.00 0.00 1
20260905143716 67 241 6.0 16.0 0.00 0.20 0.20 55 1088.7
20260905143704 32 0 0.0 0.0 0.00 0.00 0.00 1
20260905143603 67 242 5.0 16.0 0.00 0.20 0.20 55 1088.7
20260905143503 32 0 0.0 0.0 0.00 0.00 0.00 1
20260905143418 67 235 5.0 16.0 0.00 0.20 0.20 56 1088.7
20260905143404 67 234 5.0 16.0 0.00 0.20 0.20 56 1088.7
20260905143317 67 235 5.0 16.0 0.00 0.20 0.20 55 1088.7
20260905143303 67 236 5.0 16.0 0.00 0.20 0.20 55 1088.7
20260905143203 32 0 0.0 0.0 0.00 0.00 0.00 1
20260905143118 67 226 4.0 14.0 0.00 0.20 0.20 56 1088.7
20260905143103 32 0 0.0 0.0 0.00 0.00 0.00 1
20260905143003 32 0 0.0 0.0 0.00 0.00 0.00 1
20260905142903 32 0 0.0 0.0 0.00 0.00 0.00 1
20260905142803 32 0 0.0 0.0 0.00 0.00 0.00 1
20260905142703 67 224 4.0 13.0 0.00 0.20 0.20 55 1088.7
20260905142603 67 213 4.0 11.0 0.00 0.20 0.20 56 1088.7
20260905142503 67 209 4.0 11.0 0.00 0.20 0.20 55 1088.7
20260905142403 67 207 4.0 11.0 0.00 0.20 0.20 55 1088.7
20260905142305 32 0 0.0 0.0 0.00 0.00 0.00 1
20260905142203 32 0 0.0 0.0 0.00 0.00 0.00 1
20260905142103 32 0 0.0 0.0 0.00 0.00 0.00 1
20260905142003 68 196 5.0 13.0 0.00 0.20 0.20 55 1088.7
20260905141903 32 0 0.0 0.0 0.00 0.00 0.00 1
20260905141803 32 0 0.0 0.0 0.00 0.00 0.00 1
20260905141703 32 0 0.0 0.0 0.00 0.00 0.00 1
20260905141603 68 203 5.0 13.0 0.00 0.20 0.20 55 1088.7
20260905141518 68 204 5.0 13.0 0.00 0.20 0.20 54 1088.7
20260905141503 32 0 0.0 0.0 0.00 0.00 0.00 1
20260905141418 68 209 6.0 14.0 0.00 0.20 0.20 55 1088.7
20260905141403 68 210 6.0 14.0 0.00 0.20 0.20 55 1088.7
20260905141317 68 217 6.0 16.0 0.00 0.20 0.20 55 1088.7
20260905141303 32 0 0.0 0.0 0.00 0.00 0.00 1
20260905141203 32 0 0.0 0.0 0.00 0.00 0.00 1
20260905141004 67 230 6.0 18.0 0.00 0.20 0.20 56 1088.7
20260905140903 32 0 0.0 0.0 0.00 0.00 0.00 1
20260905140803 67 232 6.0 18.0 0.00 0.20 0.20 55 1088.7
20260905140718 67 230 7.0 18.0 0.00 0.20 0.20 55 1088.7
20260905140703 67 229 7.0 18.0 0.00 0.20 0.20 55 1088.7
20260905140603 67 224 7.0 18.0 0.00 0.20 0.20 55 1088.7
20260905140503 32 0 0.0 0.0 0.00 0.00 0.00 1
20260905140403 32 0 0.0 0.0 0.00 0.00 0.00 1
20260905140303 32 0 0.0 0.0 0.00 0.00 0.00 1
20260905140203 32 0 0.0 0.0 0.00 0.00 0.00 1
20260905140104 32 0 0.0 0.0 0.00 0.00 0.00 1
20260905140004 32 0 0.0 0.0 0.00 0.00 0.00 1
20260905135903 32 0 0.0 0.0 0.00 0.00 0.00 1
20260905135803 67 231 5.0 14.0 0.00 0.20 0.20 56 1088.7
20260905135703 67 240 5.0 14.0 0.00 0.20 0.20 57 1088.7
20260905135603 32 0 0.0 0.0 0.00 0.00 0.00 1
20260905135512 32 0 0.0 0.0 0.00 0.00 0.00 1
20260905135503 67 255 5.0 15.0 0.00 0.20 0.20 57 1088.7
20260905135418 67 258 5.0 15.0 0.00 0.20 0.20 56 1088.7
20260905135403 67 253 5.0 15.0 0.00 0.20 0.20 56 1088.7
20260905135317 67 247 5.0 15.0 0.00 0.20 0.20 56 1088.7
20260905135306 67 246 5.0 15.0 0.00 0.20 0.20 56 1088.7
20260905135203 32 0 0.0 0.0 0.00 0.00 0.00 1
20260905135103 32 0 0.0 0.0 0.00 0.00 0.00 1
20260905135003 67 236 6.0 17.0 0.00 0.20 0.20 57 1088.7
20260905134903 67 234 6.0 17.0 0.00 0.20 0.20 57 1088.7
20260905134803 32 0 0.0 0.0 0.00 0.00 0.00 1
20260905134703 67 230 6.0 17.0 0.00 0.20 0.20 56 1088.7
20260905134603 67 232 6.0 17.0 0.00 0.20 0.20 55 1088.7
20260905134504 67 225 6.0 17.0 0.00 0.20 0.20 55 1088.7
20260905134403 32 0 0.0 0.0 0.00 0.00 0.00 1
20260905134303 68 225 6.0 17.0 0.00 0.20 0.20 56 1088.7
20260905134203 32 0 0.0 0.0 0.00 0.00 0.00 1
20260905134103 68 217 6.0 13.0 0.00 0.20 0.20 55 1088.7
20260905134003 32 0 0.0 0.0 0.00 0.00 0.00 1
20260905133917 68 207 5.0 13.0 0.00 0.20 0.20 56 1088.7
20260905133903 68 206 5.0 13.0 0.00 0.20 0.20 55 1088.7
20260905133818 68 206 5.0 13.0 0.00 0.20 0.20 55 1088.7
20260905133803 32 0 0.0 0.0 0.00 0.00 0.00 1
20260905133703 32 0 0.0 0.0 0.00 0.00 0.00 1
20260905133603 32 0 0.0 0.0 0.00 0.00 0.00 1
20260905133503 68 217 6.0 15.0 0.00 0.20 0.20 55 1088.7
20260905133403 68 222 6.0 15.0 0.00 0.20 0.20 55 1088.7
20260905133303 32 0 0.0 0.0 0.00 0.00 0.00 1
20260905133203 68 226 5.0 15.0 0.00 0.20 0.20 56 1088.7
20260905133103 68 232 5.0 15.0 0.00 0.20 0.20 56 1088.7
20260905133003 67 234 5.0 15.0 0.00 0.20 0.20 56 1088.7
20260905132903 67 238 5.0 15.0 0.00 0.20 0.20 56 1088.7
20260905132803 32 0 0.0 0.0 0.00 0.00 0.00 1
20260905132703 32 0 0.0 0.0 0.00 0.00 0.00 1
20260905132603 67 226 5.0 15.0 0.00 0.20 0.20 53 1088.7
20260905132503 67 231 5.0 13.0 0.00 0.20 0.20 55 1088.7
20260905132403 67 230 5.0 15.0 0.00 0.20 0.20 56 1088.7
20260905132305 67 231 5.0 15.0 0.00 0.20 0.20 54 1088.7
20260905132217 67 230 5.0 15.0 0.00 0.20 0.20 54 1088.7
20260905132203 32 0 0.0 0.0 0.00 0.00 0.00 1
20260905132118 67 224 5.0 15.0 0.00 0.20 0.20 54 1088.7
20260905132103 67 225 5.0 15.0 0.00 0.20 0.20 55 1088.7
20260905131803 66 232 6.0 15.0 0.00 0.20 0.20 55 1088.7
20260905131703 32 0 0.0 0.0 0.00 0.00 0.00 1
20260905131603 66 230 6.0 15.0 0.00 0.20 0.20 55 1088.7
20260905131503 32 0 0.0 0.0 0.00 0.00 0.00 1
20260905131403 32 0 0.0 0.0 0.00 0.00 0.00 1
20260905131303 32 0 0.0 0.0 0.00 0.00 0.00 1
20260905131203 66 222 5.0 13.0 0.00 0.20 0.20 56 1088.7
20260905131103 32 0 0.0 0.0 0.00 0.00 0.00 1
20260905131004 32 0 0.0 0.0 0.00 0.00 0.00 1
20260905130903 32 0 0.0 0.0 0.00 0.00 0.00 1
20260905130803 66 228 5.0 14.0 0.00 0.20 0.20 55 1088.7
20260905130703 66 233 5.0 14.0 0.00 0.20 0.20 56 1088.7
20260905130603 67 240 5.0 14.0 0.00 0.20 0.20 56 1088.7
20260905130517 67 242 5.0 14.0 0.00 0.20 0.20 57 1088.7
20260905130503 32 0 0.0 0.0 0.00 0.00 0.00 1
20260905130403 32 0 0.0 0.0 0.00 0.00 0.00 1
20260905130303 32 0 0.0 0.0 0.00 0.00 0.00 1
20260905130217 67 251 5.0 14.0 0.00 0.20 0.20 56 1088.7
20260905130203 67 252 5.0 14.0 0.00 0.20 0.20 56 1088.7
20260905130003 32 0 0.0 0.0 0.00 0.00 0.00 1
20260905125903 32 0 0.0 0.0 0.00 0.00 0.00 1
20260905125817 67 244 5.0 14.0 0.00 0.20 0.20 56 1088.7
20260905125803 67 242 5.0 11.0 0.00 0.20 0.20 55 1088.7
20260905125703 67 243 6.0 11.0 0.00 0.20 0.20 55 1088.7
20260905125603 32 0 0.0 0.0 0.00 0.00 0.00 1
20260905125503 67 240 5.0 11.0 0.00 0.20 0.20 54 1088.7
20260905125404 32 0 0.0 0.0 0.00 0.00 0.00 1
20260905125306 32 0 0.0 0.0 0.00 0.00 0.00 1
20260905125203 67 239 5.0 11.0 0.00 0.20 0.20 54 1088.7
20260905125117 67 235 5.0 11.0 0.00 0.20 0.20 55 1088.7
20260905125103 67 236 5.0 11.0 0.00 0.20 0.20 55 1088.7
20260905125003 32 0 0.0 0.0 0.00 0.00 0.00 1
20260905124903 32 0 0.0 0.0 0.00 0.00 0.00 1
20260905124803 67 240 4.0 11.0 0.00 0.20 0.20 54 1088.7
20260905124718 67 249 4.0 11.0 0.00 0.20 0.20 55 1088.7
20260905124703 67 248 4.0 11.0 0.00 0.20 0.20 55 1088.7
20260905124603 67 247 4.0 11.0 0.00 0.20 0.20 54 1088.7
20260905124503 32 0 0.0 0.0 0.00 0.00 0.00 1
20260905124403 32 0 0.0 0.0 0.00 0.00 0.00 1
20260905124303 68 238 5.0 13.0 0.00 0.20 0.20 54 1088.7
20260905124203 68 239 5.0 14.0 0.00 0.20 0.20 54 1088.7
20260905124103 68 240 5.0 14.0 0.00 0.20 0.20 53 1088.7
20260905124003 68 244 5.0 14.0 0.00 0.20 0.20 53 1088.7
20260905123903 68 240 5.0 14.0 0.00 0.20 0.20 53 1088.7
20260905123817 68 247 5.0 14.0 0.00 0.20 0.20 53 1088.7
20260905123803 32 0 0.0 0.0 0.00 0.00 0.00 1
20260905123718 68 240 5.0 14.0 0.00 0.20 0.20 53 1088.7
20260905123703 68 238 6.0 14.0 0.00 0.20 0.20 53 1088.7
20260905123403 32 0 0.0 0.0 0.00 0.00 0.00 1
20260905123318 68 236 6.0 14.0 0.00 0.20 0.20 51 1088.7
20260905123303 68 235 6.0 14.0 0.00 0.20 0.20 51 1088.7
20260905123204 68 233 6.0 14.0 0.00 0.20 0.20 51 1088.7
20260905123103 32 0 0.0 0.0 0.00 0.00 0.00 1
20260905123003 32 0 0.0 0.0 0.00 0.00 0.00 1
20260905122903 68 228 6.0 14.0 0.00 0.20 0.20 54 1088.7
20260905122803 68 225 6.0 14.0 0.00 0.20 0.20 54 1088.7
20260905122703 68 221 6.0 14.0 0.00 0.20 0.20 53 1088.7
20260905122603 32 0 0.0 0.0 0.00 0.00 0.00 1
20260905122517 68 222 5.0 14.0 0.00 0.20 0.20 56 1088.7
20260905122503 32 0 0.0 0.0 0.00 0.00 0.00 1
20260905122417 68 224 5.0 14.0 0.00 0.20 0.20 56 1088.7
20260905122403 68 225 5.0 14.0 0.00 0.20 0.20 56 1088.7
20260905122306 32 0 0.0 0.0 0.00 0.00 0.00 1
20260905122203 32 0 0.0 0.0 0.00 0.00 0.00 1
20260905122103 32 0 0.0 0.0 0.00 0.00 0.00 1
20260905122003 32 0 0.0 0.0 0.00 0.00 0.00 1
20260905121903 32 0 0.0 0.0 0.00 0.00 0.00 1
20260905121803 32 0 0.0 0.0 0.00 0.00 0.00 1
20260905121703 67 242 6.0 14.0 0.00 0.20 0.20 56 1088.7
20260905121603 32 0 0.0 0.0 0.00 0.00 0.00 1
20260905121503 67 255 7.0 21.0 0.00 0.20 0.20 57 1088.7
20260905121403 67 258 7.0 21.0 0.00 0.20 0.20 57 1088.7
20260905121303 67 260 8.0 21.0 0.00 0.20 0.20 57 1088.7
20260905121203 67 266 8.0 21.0 0.00 0.20 0.20 57 1088.7
20260905121103 32 0 0.0 0.0 0.00 0.00 0.00 1
20260905121003 67 263 8.0 21.0 0.00 0.20 0.20 56 1088.7
20260905120903 32 0 0.0 0.0 0.00 0.00 0.00 1
20260905120804 67 262 8.0 21.0 0.00 0.20 0.20 55 1088.7
20260905120703 68 260 8.0 21.0 0.00 0.20 0.20 54 1088.7
20260905120618 68 258 7.0 21.0 0.00 0.20 0.20 54 1088.7
20260905120604 68 258 7.0 21.0 0.00 0.20 0.20 54 1088.7
20260905120503 68 251 6.0 17.0 0.00 0.20 0.20 54 1088.7
20260905120403 32 0 0.0 0.0 0.00 0.00 0.00 1
20260905120318 68 230 5.0 17.0 0.00 0.20 0.20 53 1088.7
20260905120303 68 227 5.0 17.0 0.00 0.20 0.20 53 1088.7
20260905120203 68 221 5.0 16.0 0.00 0.20 0.20 55 1088.7
20260905120003 68 208 5.0 11.0 0.00 0.20 0.20 55 1088.7
20260905115903 68 204 4.0 11.0 0.00 0.20 0.20 54 1088.7
20260905115803 32 0 0.0 0.0 0.00 0.00 0.00 1
20260905115718 68 202 5.0 11.0 0.00 0.20 0.20 56 1088.7
20260905115703 32 0 0.0 0.0 0.00 0.00 0.00 1
20260905115618 68 197 5.0 11.0 0.00 0.20 0.20 56 1088.7
20260905115603 32 0 0.0 0.0 0.00 0.00 0.00 1
20260905115503 32 0 0.0 0.0 0.00 0.00 0.00 1
20260905115403 32 0 0.0 0.0 0.00 0.00 0.00 1
20260905115306 67 214 4.0 11.0 0.00 0.20 0.20 59 1088.7
20260905115203 67 223 4.0 11.0 0.00 0.20 0.20 59 1088.7
20260905115119 67 237 4.0 11.0 0.00 0.20 0.20 58 1088.7
20260905115103 67 239 4.0 11.0 0.00 0.20 0.20 58 1088.7
20260905115003 67 239 4.0 11.0 0.00 0.20 0.20 59 1088.7
20260905114918 66 239 4.0 11.0 0.00 0.20 0.20 58 1088.7
20260905114903 32 0 0.0 0.0 0.00 0.00 0.00 1
20260905114803 66 241 4.0 11.0 0.00 0.20 0.20 59 1088.7
20260905114703 32 0 0.0 0.0 0.00 0.00 0.00 1
20260905114603 32 0 0.0 0.0 0.00 0.00 0.00 1
20260905114517 66 259 4.0 11.0 0.00 0.20 0.20 60 1088.7
20260905114503 32 0 0.0 0.0 0.00 0.00 0.00 1
20260905114408 32 0 0.0 0.0 0.00 0.00 0.00 1
20260905114403 66 258 4.0 10.0 0.00 0.20 0.20 59 1088.7
20260905114303 32 0 0.0 0.0 0.00 0.00 0.00 1
20260905114203 66 263 5.0 11.0 0.00 0.20 0.20 58 1088.7
20260905114103 66 258 5.0 11.0 0.00 0.20 0.20 58 1088.7
20260905114003 66 263 5.0 11.0 0.00 0.20 0.20 58 1088.7
20260905113903 67 267 5.0 14.0 0.00 0.20 0.20 58 1088.7
20260905113803 67 261 5.0 17.0 0.00 0.20 0.20 59 1088.7
20260905113717 67 266 6.0 17.0 0.00 0.20 0.20 59 1088.7
20260905113703 67 266 6.0 17.0 0.00 0.20 0.20 59 1088.7
20260905113618 67 265 6.0 17.0 0.00 0.20 0.20 59 1088.7
20260905113603 67 266 7.0 17.0 0.00 0.20 0.20 58 1088.7
20260905113503 32 0 0.0 0.0 0.00 0.00 0.00 1
20260905113403 32 0 0.0 0.0 0.00 0.00 0.00 1
20260905113303 32 0 0.0 0.0 0.00 0.00 0.00 1
20260905113204 67 258 7.0 17.0 0.00 0.20 0.20 59 1088.7
20260905113117 67 253 7.0 17.0 0.00 0.20 0.20 59 1088.7
20260905113104 32 0 0.0 0.0 0.00 0.00 0.00 1
20260905113004 67 248 7.0 17.0 0.00 0.20 0.20 58 1088.7
20260905112904 32 0 0.0 0.0 0.00 0.00 0.00 1
20260905112803 67 248 7.0 17.0 0.00 0.20 0.20 57 1088.7
20260905112703 67 240 7.0 17.0 0.00 0.20 0.20 57 1088.7
20260905112603 67 239 6.0 17.0 0.00 0.20 0.20 57 1088.7
20260905112503 67 234 6.0 15.0 0.00 0.20 0.20 60 1088.7
20260905112417 67 241 7.0 21.0 0.00 0.20 0.20 59 1088.7
20260905112403 32 0 0.0 0.0 0.00 0.00 0.00 1
20260905112305 32 0 0.0 0.0 0.00 0.00 0.00 1
20260905112203 32 0 0.0 0.0 0.00 0.00 0.00 1
20260905112103 67 250 7.0 21.0 0.00 0.20 0.20 58 1088.7
20260905112003 67 252 7.0 21.0 0.00 0.20 0.20 58 1088.7
20260905111903 32 0 0.0 0.0 0.00 0.00 0.00 1
20260905111803 67 246 6.0 21.0 0.00 0.20 0.20 58 1088.7
20260905111703 67 250 6.0 21.0 0.00 0.20 0.20 58 1088.7
20260905111603 67 250 6.0 21.0 0.00 0.20 0.20 57 1088.7
20260905111503 32 0 0.0 0.0 0.00 0.00 0.00 1
20260905111403 32 0 0.0 0.0 0.00 0.00 0.00 1
20260905111303 32 0 0.0 0.0 0.00 0.00 0.00 1
20260905111203 32 0 0.0 0.0 0.00 0.00 0.00 1
20260905111103 67 241 5.0 14.0 0.00 0.20 0.20 59 1088.7
20260905111003 32 0 0.0 0.0 0.00 0.00 0.00 1
20260905110903 32 0 0.0 0.0 0.00 0.00 0.00 1
20260905110803 67 250 6.0 14.0 0.00 0.20 0.20 60 1088.7
20260905110703 67 249 6.0 14.0 0.00 0.20 0.20 60 1088.7
20260905110603 67 249 6.0 14.0 0.00 0.20 0.20 59 1088.7
20260905110503 67 244 6.0 14.0 0.00 0.20 0.20 61 1088.7
20260905110403 67 244 5.0 14.0 0.00 0.20 0.20 60 1088.7
20260905110318 67 244 5.0 14.0 0.00 0.20 0.20 59 1088.7
20260905110303 32 0 0.0 0.0 0.00 0.00 0.00 1
20260905110203 67 239 5.0 13.0 0.00 0.20 0.20 59 1088.7
20260905110003 67 228 5.0 13.0 0.00 0.20 0.20 60 1088.7
20260905105903 67 221 5.0 14.0 0.00 0.20 0.20 60 1088.7
20260905105803 67 216 5.0 14.0 0.00 0.20 0.20 60 1088.7
20260905105703 67 212 5.0 14.0 0.00 0.20 0.20 60 1088.7
20260905105603 67 216 6.0 16.0 0.00 0.20 0.20 58 1088.7
20260905105503 32 0 0.0 0.0 0.00 0.00 0.00 1
20260905105414 32 0 0.0 0.0 0.00 0.00 0.00 1
20260905105403 67 224 6.0 16.0 0.00 0.20 0.20 62 1088.7
20260905105306 32 0 0.0 0.0 0.00 0.00 0.00 1
20260905105204 66 252 6.0 16.0 0.00 0.20 0.20 62 1088.7
20260905105103 66 265 6.0 16.0 0.00 0.20 0.20 63 1088.7
20260905105003 32 0 0.0 0.0 0.00 0.00 0.00 1
20260905104903 66 315 6.0 16.0 0.00 0.20 0.20 60 1088.7
20260905104803 67 330 6.0 16.0 0.00 0.20 0.20 60 1088.7
20260905104703 67 330 5.0 16.0 0.00 0.20 0.20 60 1088.7
20260905104603 32 0 0.0 0.0 0.00 0.00 0.00 1
20260905104503 32 0 0.0 0.0 0.00 0.00 0.00 1
20260905104403 32 0 0.0 0.0 0.00 0.00 0.00 1
20260905104312 32 0 0.0 0.0 0.00 0.00 0.00 1
20260905104303 67 350 5.0 13.0 0.00 0.20 0.20 60 1088.7
20260905104203 67 346 5.0 13.0 0.00 0.20 0.20 61 1088.7
20260905104117 67 347 5.0 13.0 0.00 0.20 0.20 61 1088.7
20260905104003 32 0 0.0 0.0 0.00 0.00 0.00 1
20260905103903 32 0 0.0 0.0 0.00 0.00 0.00 1
20260905103803 67 322 5.0 15.0 0.00 0.20 0.20 62 1088.7
20260905103703 32 0 0.0 0.0 0.00 0.00 0.00 1
20260905103618 67 322 5.0 15.0 0.00 0.20 0.20 62 1088.7
20260905103603 67 324 5.0 15.0 0.00 0.20 0.20 62 1088.7
20260905103503 67 327 5.0 15.0 0.00 0.20 0.20 62 1088.7
20260905103417 67 325 5.0 15.0 0.00 0.20 0.20 61 1088.7
20260905103303 32 0 0.0 0.0 0.00 0.00 0.00 1
20260905103203 32 0 0.0 0.0 0.00 0.00 0.00 1
20260905103103 32 0 0.0 0.0 0.00 0.00 0.00 1
20260905103003 66 347 5.0 17.0 0.00 0.20 0.20 63 1088.7
20260905102903 66 349 5.0 17.0 0.00 0.20 0.20 63 1088.7
20260905102803 32 0 0.0 0.0 0.00 0.00 0.00 1
20260905102703 67 4 5.0 17.0 0.00 0.20 0.20 61 1088.7
20260905102603 32 0 0.0 0.0 0.00 0.00 0.00 1
20260905102503 67 356 5.0 17.0 0.00 0.20 0.20 61 1088.7
20260905102403 68 358 4.0 17.0 0.00 0.20 0.20 60 1088.7
20260905102306 68 353 5.0 17.0 0.00 0.20 0.20 60 1088.7
20260905102203 32 0 0.0 0.0 0.00 0.00 0.00 1
20260905102103 69 313 4.0 17.0 0.00 0.20 0.20 58 1088.7
20260905102003 32 0 0.0 0.0 0.00 0.00 0.00 1
20260905101903 32 0 0.0 0.0 0.00 0.00 0.00 1
20260905101818 69 291 4.0 11.0 0.00 0.20 0.20 61 1088.7
20260905101803 32 0 0.0 0.0 0.00 0.00 0.00 1
20260905101703 68 294 4.0 11.0 0.00 0.20 0.20 62 1088.7
20260905101603 32 0 0.0 0.0 0.00 0.00 0.00 1
20260905101518 68 297 3.0 11.0 0.00 0.20 0.20 63 1088.7
20260905101503 32 0 0.0 0.0 0.00 0.00 0.00 1
20260905101417 67 312 4.0 11.0 0.00 0.20 0.20 64 1088.7
20260905101403 32 0 0.0 0.0 0.00 0.00 0.00 1
20260905101303 32 0 0.0 0.0 0.00 0.00 0.00 1
20260905101203 32 0 0.0 0.0 0.00 0.00 0.00 1
20260905101103 67 322 4.0 16.0 0.00 0.20 0.20 63 1088.7
20260905101003 32 0 0.0 0.0 0.00 0.00 0.00 1
20260905100918 67 317 4.0 16.0 0.00 0.20 0.20 64 1088.7
20260905100903 32 0 0.0 0.0 0.00 0.00 0.00 1
20260905100803 66 317 4.0 16.0 0.00 0.20 0.20 64 1088.7
20260905100703 32 0 0.0 0.0 0.00 0.00 0.00 1
20260905100603 66 308 5.0 16.0 0.00 0.20 0.20 64 1088.7
20260905100503 32 0 0.0 0.0 0.00 0.00 0.00 1
20260905100403 66 289 5.0 16.0 0.00 0.20 0.20 66 1088.7
20260905100303 32 0 0.0 0.0 0.00 0.00 0.00 1
20260905100203 66 288 5.0 16.0 0.00 0.20 0.20 64 1088.7
20260905100017 65 279 5.0 14.0 0.00 0.20 0.20 67 1088.7
20260905100003 32 0 0.0 0.0 0.00 0.00 0.00 1
20260905095903 65 273 4.0 14.0 0.00 0.20 0.20 68 1088.7
20260905095818 65 272 4.0 14.0 0.00 0.20 0.20 68 1088.7
20260905095803 32 0 0.0 0.0 0.00 0.00 0.00 1
20260905095703 32 0 0.0 0.0 0.00 0.00 0.00 1
20260905095603 32 0 0.0 0.0 0.00 0.00 0.00 1
20260905095518 65 279 4.0 14.0 0.00 0.20 0.20 66 1088.7
20260905095503 32 0 0.0 0.0 0.00 0.00 0.00 1
20260905095403 32 0 0.0 0.0 0.00 0.00 0.00 1
20260905095305 32 0 0.0 0.0 0.00 0.00 0.00 1
20260905095203 65 285 4.0 10.0 0.00 0.20 0.20 68 1088.7
20260905095103 65 302 3.0 13.0 0.00 0.20 0.20 68 1088.7
20260905095004 65 302 3.0 13.0 0.00 0.20 0.20 68 1088.7
20260905094903 32 0 0.0 0.0 0.00 0.00 0.00 1
20260905094803 65 307 4.0 13.0 0.00 0.20 0.20 67 1088.7
20260905094703 32 0 0.0 0.0 0.00 0.00 0.00 1
20260905094603 32 0 0.0 0.0 0.00 0.00 0.00 1
20260905094503 32 0 0.0 0.0 0.00 0.00 0.00 1
20260905094403 32 0 0.0 0.0 0.00 0.00 0.00 1
20260905094303 32 0 0.0 0.0 0.00 0.00 0.00 1
20260905094218 65 324 4.0 13.0 0.00 0.20 0.20 67 1088.7
20260905094203 32 0 0.0 0.0 0.00 0.00 0.00 1
20260905094103 32 0 0.0 0.0 0.00 0.00 0.00 1
20260905094017 65 322 4.0 11.0 0.00 0.20 0.20 66 1088.7
20260905094003 32 0 0.0 0.0 0.00 0.00 0.00 1
20260905093903 65 315 4.0 11.0 0.00 0.20 0.20 69 1088.7
20260905093803 32 0 0.0 0.0 0.00 0.00 0.00 1
20260905093703 65 330 4.0 13.0 0.00 0.20 0.20 68 1088.7
20260905093603 32 0 0.0 0.0 0.00 0.00 0.00 1
20260905093503 32 0 0.0 0.0 0.00 0.00 0.00 1
20260905093403 32 0 0.0 0.0 0.00 0.00 0.00 1
20260905093303 32 0 0.0 0.0 0.00 0.00 0.00 1
20260905093203 32 0 0.0 0.0 0.00 0.00 0.00 1
20260905093103 32 0 0.0 0.0 0.00 0.00 0.00 1
20260905093003 32 0 0.0 0.0 0.00 0.00 0.00 1
20260905092903 32 0 0.0 0.0 0.00 0.00 0.00 1
20260905092803 68 290 4.0 14.0 0.00 0.20 0.20 66 1088.7
20260905092703 32 0 0.0 0.0 0.00 0.00 0.00 1
20260905092617 68 283 5.0 15.0 0.00 0.20 0.20 65 1088.7
20260905092603 32 0 0.0 0.0 0.00 0.00 0.00 1
20260905092503 69 292 5.0 15.0 0.00 0.20 0.20 64 1088.7
20260905092403 32 0 0.0 0.0 0.00 0.00 0.00 1
20260905092306 32 0 0.0 0.0 0.00 0.00 0.00 1
20260905092218 68 291 5.0 15.0 0.00 0.20 0.20 66 1088.7
20260905092203 68 294 5.0 15.0 0.00 0.20 0.20 66 1088.7
20260905092118 68 291 5.0 15.0 0.00 0.20 0.20 66 1088.7
20260905092103 68 293 5.0 15.0 0.00 0.20 0.20 66 1088.7
20260905092003 32 0 0.0 0.0 0.00 0.00 0.00 1
20260905091903 32 0 0.0 0.0 0.00 0.00 0.00 1
20260905091803 32 0 0.0 0.0 0.00 0.00 0.00 1
20260905091703 67 297 4.0 10.0 0.00 0.20 0.20 67 1088.7
20260905091603 67 279 4.0 10.0 0.00 0.20 0.20 67 1088.7
20260905091503 32 0 0.0 0.0 0.00 0.00 0.00 1
20260905091403 67 231 4.0 15.0 0.00 0.20 0.20 68 1088.7
20260905091303 67 213 4.0 15.0 0.00 0.20 0.20 68 1088.7
20260905091203 32 0 0.0 0.0 0.00 0.00 0.00 1
20260905091103 32 0 0.0 0.0 0.00 0.00 0.00 1
20260905091003 67 194 3.0 15.0 0.00 0.20 0.20 69 1088.7
20260905090917 67 196 3.0 15.0 0.00 0.20 0.20 69 1088.7
20260905090903 32 0 0.0 0.0 0.00 0.00 0.00 1
20260905090803 67 200 3.0 15.0 0.00 0.20 0.20 67 1088.7
20260905090703 32 0 0.0 0.0 0.00 0.00 0.00 1
20260905090603 32 0 0.0 0.0 0.00 0.00 0.00 1
20260905090503 32 0 0.0 0.0 0.00 0.00 0.00 1
20260905090403 68 209 3.0 10.0 0.00 0.20 0.20 66 1088.7
20260905090304 32 0 0.0 0.0 0.00 0.00 0.00 1
20260905090203 32 0 0.0 0.0 0.00 0.00 0.00 1
20260905090103 67 219 3.0 10.0 0.00 0.20 0.20 70 1088.7
20260905090003 32 0 0.0 0.0 0.00 0.00 0.00 1
20260905085903 67 222 3.0 10.0 0.00 0.20 0.20 73 1088.7
20260905085803 66 217 3.0 10.0 0.00 0.20 0.20 73 1088.7
20260905085703 32 0 0.0 0.0 0.00 0.00 0.00 1
20260905085603 32 0 0.0 0.0 0.00 0.00 0.00 1
20260905085503 65 228 3.0 10.0 0.00 0.20 0.20 73 1088.7
20260905085403 65 229 3.0 10.0 0.00 0.20 0.20 74 1088.7
20260905085305 32 0 0.0 0.0 0.00 0.00 0.00 1
20260905085203 65 212 3.0 10.0 0.00 0.20 0.20 74 1088.7
20260905085103 65 206 2.0 8.0 0.00 0.20 0.20 74 1088.7
20260905085004 32 0 0.0 0.0 0.00 0.00 0.00 1
20260905084917 65 200 2.0 8.0 0.00 0.20 0.20 75 1088.7
20260905084903 65 202 2.0 8.0 0.00 0.20 0.20 76 1088.7
20260905084803 65 210 2.0 8.0 0.00 0.20 0.20 76 1088.7
20260905084703 32 0 0.0 0.0 0.00 0.00 0.00 1
20260905084604 64 207 2.0 6.0 0.00 0.20 0.20 79 1088.7
20260905084503 64 220 3.0 15.0 0.00 0.20 0.20 79 1088.7
20260905084403 64 223 3.0 15.0 0.00 0.20 0.20 77 1088.7
20260905084303 32 0 0.0 0.0 0.00 0.00 0.00 1
20260905084203 32 0 0.0 0.0 0.00 0.00 0.00 1
20260905084103 64 226 4.0 15.0 0.00 0.20 0.20 76 1088.7
20260905084003 32 0 0.0 0.0 0.00 0.00 0.00 1
20260905083903 64 221 4.0 15.0 0.00 0.20 0.20 75 1088.7
20260905083818 65 220 4.0 15.0 0.00 0.20 0.20 75 1088.7
20260905083803 65 219 4.0 15.0 0.00 0.20 0.20 75 1088.7
20260905083603 32 0 0.0 0.0 0.00 0.00 0.00 1
20260905083503 32 0 0.0 0.0 0.00 0.00 0.00 1
20260905083403 65 217 4.0 9.0 0.00 0.20 0.20 79 1088.7
20260905083303 65 221 4.0 9.0 0.00 0.20 0.20 79 1088.7
20260905083203 64 224 4.0 11.0 0.00 0.20 0.20 81 1088.7
20260905083103 64 229 4.0 11.0 0.00 0.20 0.20 81 1088.7
20260905083003 64 228 5.0 11.0 0.00 0.20 0.20 80 1088.7
20260905082903 64 228 5.0 11.0 0.00 0.20 0.20 81 1088.7
20260905082803 32 0 0.0 0.0 0.00 0.00 0.00 1
20260905082703 32 0 0.0 0.0 0.00 0.00 0.00 1
20260905082603 32 0 0.0 0.0 0.00 0.00 0.00 1
20260905082503 63 226 5.0 11.0 0.00 0.20 0.20 80 1088.7
20260905082403 63 230 4.0 11.0 0.00 0.20 0.20 80 1088.7
20260905082307 63 224 4.0 11.0 0.00 0.20 0.20 81 1088.7
20260905082203 63 225 4.0 11.0 0.00 0.20 0.20 81 1088.7
20260905082103 63 230 4.0 10.0 0.00 0.20 0.20 81 1088.7
20260905082003 63 236 4.0 10.0 0.00 0.20 0.20 82 1088.7
20260905081903 62 241 4.0 10.0 0.00 0.20 0.20 84 1088.7
20260905081804 62 239 3.0 10.0 0.00 0.20 0.20 86 1088.7
20260905081718 62 241 3.0 10.0 0.00 0.20 0.20 84 1088.7
20260905081703 62 244 3.0 10.0 0.00 0.20 0.20 84 1088.7
20260905081603 62 244 4.0 10.0 0.00 0.20 0.20 85 1088.7
20260905081517 61 243 3.0 10.0 0.00 0.20 0.20 86 1088.7
20260905081503 32 0 0.0 0.0 0.00 0.00 0.00 1
20260905081403 61 241 3.0 10.0 0.00 0.20 0.20 86 1088.7
20260905081203 32 0 0.0 0.0 0.00 0.00 0.00 1
20260905081103 32 0 0.0 0.0 0.00 0.00 0.00 1
20260905081013 32 0 0.0 0.0 0.00 0.00 0.00 1
20260905081003 60 218 3.0 14.0 0.00 0.20 0.20 89 1088.7
20260905080903 32 0 0.0 0.0 0.00 0.00 0.00 1
20260905080803 60 215 4.0 14.0 0.00 0.20 0.20 88 1088.7
20260905080703 32 0 0.0 0.0 0.00 0.00 0.00 1
20260905080603 32 0 0.0 0.0 0.00 0.00 0.00 1
20260905080503 32 0 0.0 0.0 0.00 0.00 0.00 1
20260905080418 59 212 3.0 14.0 0.00 0.20 0.20 89 1088.7
20260905080403 32 0 0.0 0.0 0.00 0.00 0.00 1
20260905080303 32 0 0.0 0.0 0.00 0.00 0.00 1
20260905080217 59 216 3.0 8.0 0.00 0.20 0.20 90 1088.7
20260905080003 32 0 0.0 0.0 0.00 0.00 0.00 1
20260905075903 32 0 0.0 0.0 0.00 0.00 0.00 1
20260905075803 59 217 2.0 7.0 0.00 0.20 0.20 90 1088.7
20260905075703 59 217 2.0 8.0 0.00 0.20 0.20 90 1088.7
20260905075603 58 221 3.0 9.0 0.00 0.20 0.20 89 1088.7
20260905075503 32 0 0.0 0.0 0.00 0.00 0.00 1
20260905075403 58 224 3.0 9.0 0.00 0.20 0.20 91 1088.7
20260905075306 58 224 3.0 9.0 0.00 0.20 0.20 91 1088.7
20260905075203 32 0 0.0 0.0 0.00 0.00 0.00 1
20260905075103 58 225 3.0 9.0 0.00 0.20 0.20 91 1088.7
20260905075003 58 230 3.0 9.0 0.00 0.20 0.20 90 1088.7
20260905074903 32 0 0.0 0.0 0.00 0.00 0.00 1
20260905074803 58 234 3.0 9.0 0.00 0.20 0.20 91 1088.7
20260905074703 32 0 0.0 0.0 0.00 0.00 0.00 1
20260905074603 58 245 2.0 9.0 0.00 0.20 0.20 92 1088.7
20260905074503 58 244 2.0 4.0 0.00 0.20 0.20 91 1088.7
20260905074403 58 249 2.0 6.0 0.00 0.20 0.20 91 1088.7
20260905074303 32 0 0.0 0.0 0.00 0.00 0.00 1
20260905074203 32 0 0.0 0.0 0.00 0.00 0.00 1
20260905074117 58 255 2.0 7.0 0.00 0.20 0.20 90 1088.7
20260905074103 58 256 2.0 7.0 0.00 0.20 0.20 90 1088.7
20260905074003 58 254 2.0 7.0 0.00 0.20 0.20 91 1088.7
20260905073913 32 0 0.0 0.0 0.00 0.00 0.00 1
20260905073803 32 0 0.0 0.0 0.00 0.00 0.00 1
20260905073703 58 260 2.0 7.0 0.00 0.20 0.20 93 1088.7
20260905073603 58 257 2.0 7.0 0.00 0.20 0.20 93 1088.7
20260905073517 58 256 2.0 7.0 0.00 0.20 0.20 93 1088.7
20260905073503 58 254 2.0 7.0 0.00 0.20 0.20 93 1088.7
20260905073403 32 0 0.0 0.0 0.00 0.00 0.00 1
20260905073318 57 243 1.0 7.0 0.00 0.20 0.20 94 1088.7
20260905073303 32 0 0.0 0.0 0.00 0.00 0.00 1
20260905073203 32 0 0.0 0.0 0.00 0.00 0.00 1
20260905073103 32 0 0.0 0.0 0.00 0.00 0.00 1
20260905073003 32 0 0.0 0.0 0.00 0.00 0.00 1
20260905072903 32 0 0.0 0.0 0.00 0.00 0.00 1
20260905072803 56 245 2.0 6.0 0.00 0.20 0.20 92 1088.7
20260905072703 57 244 2.0 6.0 0.00 0.20 0.20 93 1088.7
20260905072603 57 242 2.0 6.0 0.00 0.20 0.20 92 1088.7
20260905072517 57 240 3.0 6.0 0.00 0.20 0.20 92 1088.7
20260905072503 57 241 3.0 6.0 0.00 0.20 0.20 92 1088.7
20260905072403 32 0 0.0 0.0 0.00 0.00 0.00 1
20260905072305 32 0 0.0 0.0 0.00 0.00 0.00 1
20260905072203 32 0 0.0 0.0 0.00 0.00 0.00 1
20260905072103 57 234 2.0 6.0 0.00 0.20 0.20 94 1088.7
20260905072003 57 231 2.0 6.0 0.00 0.20 0.20 94 1088.7
20260905071903 57 231 1.0 4.0 0.00 0.20 0.20 94 1088.7
20260905071803 57 228 1.0 4.0 0.00 0.20 0.20 94 1088.7
20260905071703 57 227 1.0 4.0 0.00 0.20 0.20 93 1088.7
20260905071603 32 0 0.0 0.0 0.00 0.00 0.00 1
20260905071517 57 228 1.0 3.0 0.00 0.20 0.20 94 1088.7
20260905071504 57 227 1.0 3.0 0.00 0.20 0.20 94 1088.7
20260905071403 32 0 0.0 0.0 0.00 0.00 0.00 1
20260905071203 56 246 1.0 4.0 0.00 0.20 0.20 95 1088.7
20260905071103 32 0 0.0 0.0 0.00 0.00 0.00 1
20260905071003 56 253 1.0 4.0 0.00 0.20 0.20 95 1088.7
20260905070903 32 0 0.0 0.0 0.00 0.00 0.00 1
20260905070817 56 252 1.0 4.0 0.00 0.20 0.20 95 1088.7
20260905070803 32 0 0.0 0.0 0.00 0.00 0.00 1
20260905070718 56 259 1.0 4.0 0.00 0.20 0.20 95 1088.7
20260905070703 32 0 0.0 0.0 0.00 0.00 0.00 1
20260905070603 32 0 0.0 0.0 0.00 0.00 0.00 1
20260905070514 32 0 0.0 0.0 0.00 0.00 0.00 1
20260905070403 56 255 1.0 6.0 0.00 0.20 0.20 95 1088.7
20260905070303 56 258 1.0 6.0 0.00 0.20 0.20 95 1088.7
20260905070213 32 0 0.0 0.0 0.00 0.00 0.00 1
20260905070203 56 254 1.0 6.0 0.00 0.20 0.20 95 1088.7
20260905070004 56 247 1.0 6.0 0.00 0.20 0.20 95 1088.7
20260905065904 32 0 0.0 0.0 0.00 0.00 0.00 1
20260905065803 32 0 0.0 0.0 0.00 0.00 0.00 1
20260905065718 55 244 1.0 6.0 0.00 0.20 0.20 95 1088.7
20260905065703 55 242 1.0 6.0 0.00 0.20 0.20 95 1088.7
20260905065603 55 247 1.0 6.0 0.00 0.20 0.20 95 1088.7
20260905065517 55 248 1.0 6.0 0.00 0.20 0.20 95 1088.7
20260905065503 32 0 0.0 0.0 0.00 0.00 0.00 1
20260905065403 55 243 1.0 4.0 0.00 0.20 0.20 95 1088.7
20260905065217 55 234 1.0 3.0 0.00 0.20 0.20 95 1088.7
20260905065203 55 235 1.0 3.0 0.00 0.20 0.20 95 1088.7
20260905065103 32 0 0.0 0.0 0.00 0.00 0.00 1
20260905065018 55 237 1.0 3.0 0.00 0.20 0.20 96 1088.7
20260905065003 32 0 0.0 0.0 0.00 0.00 0.00 1
20260905064903 55 235 1.0 3.0 0.00 0.20 0.20 96 1088.7
20260905064803 32 0 0.0 0.0 0.00 0.00 0.00 1
20260905064703 55 232 1.0 3.0 0.00 0.20 0.20 96 1088.7
20260905064603 32 0 0.0 0.0 0.00 0.00 0.00 1
20260905064503 55 223 1.0 3.0 0.00 0.20 0.20 96 1088.7
20260905064403 32 0 0.0 0.0 0.00 0.00 0.00 1
20260905064303 32 0 0.0 0.0 0.00 0.00 0.00 1
20260905064203 32 0 0.0 0.0 0.00 0.00 0.00 1
20260905064103 32 0 0.0 0.0 0.00 0.00 0.00 1
20260905064003 54 215 1.0 3.0 0.00 0.20 0.20 96 1088.7
20260905063903 54 219 1.0 3.0 0.00 0.20 0.20 96 1088.7
20260905063803 32 0 0.0 0.0 0.00 0.00 0.00 1
20260905063703 54 222 1.0 3.0 0.01 0.20 0.20 95 1088.7
20260905063603 54 233 1.0 3.0 0.01 0.20 0.20 95 1088.7
20260905063503 32 0 0.0 0.0 0.00 0.00 0.00 1
20260905063414 32 0 0.0 0.0 0.00 0.00 0.00 1
20260905063403 54 248 1.0 3.0 0.01 0.20 0.20 95 1088.7
20260905063318 54 247 1.0 3.0 0.02 0.20 0.20 95 1088.7
20260905063303 54 243 1.0 3.0 0.02 0.20 0.20 95 1088.7
20260905063213 32 0 0.0 0.0 0.00 0.00 0.00 1
20260905063203 54 250 1.0 4.0 0.02 0.20 0.20 95 1088.7
20260905063103 32 0 0.0 0.0 0.00 0.00 0.00 1
20260905063003 54 251 1.0 4.0 0.02 0.20 0.20 95 1088.7
20260905062903 54 247 1.0 4.0 0.02 0.20 0.20 95 1088.7
20260905062803 32 0 0.0 0.0 0.00 0.00 0.00 1
20260905062703 32 0 0.0 0.0 0.00 0.00 0.00 1
20260905062603 54 245 1.0 4.0 0.02 0.20 0.20 95 1088.7
20260905062503 54 241 1.0 4.0 0.02 0.20 0.20 95 1088.7
20260905062417 54 239 1.0 4.0 0.03 0.20 0.20 95 1088.7
20260905062403 54 240 1.0 4.0 0.03 0.20 0.20 95 1088.7
20260905062305 54 244 1.0 4.0 0.03 0.20 0.20 95 1088.7
20260905062103 32 0 0.0 0.0 0.00 0.00 0.00 1
20260905062003 54 246 1.0 4.0 0.03 0.20 0.20 95 1088.7
20260905061903 32 0 0.0 0.0 0.00 0.00 0.00 1
20260905061803 54 236 1.0 3.0 0.04 0.20 0.20 95 1088.7
20260905061703 54 261 1.0 6.0 0.04 0.20 0.20 96 1088.7
20260905061603 32 0 0.0 0.0 0.00 0.00 0.00 1
20260905061503 32 0 0.0 0.0 0.00 0.00 0.00 1
20260905061403 54 264 2.0 6.0 0.04 0.20 0.20 95 1088.7
20260905061303 32 0 0.0 0.0 0.00 0.00 0.00 1
20260905061216 54 255 2.0 6.0 0.05 0.20 0.20 95 1088.7
20260905061203 54 254 2.0 6.0 0.05 0.20 0.20 95 1088.7
20260905061103 32 0 0.0 0.0 0.00 0.00 0.00 1
20260905061018 54 251 2.0 6.0 0.05 0.20 0.20 95 1088.7
20260905061003 32 0 0.0 0.0 0.00 0.00 0.00 1
20260905060903 32 0 0.0 0.0 0.00 0.00 0.00 1
20260905060803 32 0 0.0 0.0 0.00 0.00 0.00 1
20260905060717 54 257 2.0 6.0 0.06 0.20 0.20 95 1088.7
20260905060703 54 255 2.0 6.0 0.06 0.20 0.20 95 1088.7
20260905060603 54 247 1.0 6.0 0.06 0.20 0.20 95 1088.7
20260905060504 32 0 0.0 0.0 0.00 0.00 0.00 1
20260905060403 32 0 0.0 0.0 0.00 0.00 0.00 1
20260905060303 32 0 0.0 0.0 0.00 0.00 0.00 1
20260905060203 54 281 1.0 4.0 0.06 0.20 0.20 95 1088.7
20260905060103 54 268 1.0 6.0 0.07 0.20 0.20 95 1088.7
20260905060003 54 255 2.0 8.0 0.07 0.20 0.20 95 1088.7
20260905055918 54 243 2.0 8.0 0.07 0.20 0.20 95 1088.7
20260905055903 54 239 2.0 8.0 0.07 0.20 0.20 95 1088.7
20260905055804 32 0 0.0 0.0 0.00 0.00 0.00 1
20260905055703 32 0 0.0 0.0 0.00 0.00 0.00 1
20260905055603 32 0 0.0 0.0 0.00 0.00 0.00 1
20260905055503 54 197 3.0 8.0 0.08 0.20 0.20 95 1088.7
20260905055403 54 193 3.0 8.0 0.08 0.20 0.20 95 1088.7
20260905055306 54 188 3.0 8.0 0.09 0.20 0.20 95 1088.7
20260905055203 32 0 0.0 0.0 0.00 0.00 0.00 1
20260905055103 54 182 3.0 8.0 0.09 0.20 0.20 95 1088.7
20260905055018 54 179 3.0 8.0 0.09 0.20 0.20 95 1088.7
20260905055003 32 0 0.0 0.0 0.00 0.00 0.00 1
20260905054903 54 173 3.0 8.0 0.10 0.20 0.20 95 1088.7
20260905054703 32 0 0.0 0.0 0.00 0.00 0.00 1
20260905054603 54 150 3.0 7.0 0.11 0.20 0.20 95 1088.7
20260905054503 54 149 3.0 7.0 0.11 0.20 0.20 95 1088.7
20260905054403 32 0 0.0 0.0 0.00 0.00 0.00 1
20260905054318 54 143 3.0 7.0 0.11 0.20 0.20 95 1088.7
20260905054303 54 142 3.0 7.0 0.11 0.20 0.20 95 1088.7
20260905054203 54 143 3.0 7.0 0.11 0.20 0.20 94 1088.7
20260905054003 32 0 0.0 0.0 0.00 0.00 0.00 1
20260905053903 54 143 2.0 7.0 0.11 0.20 0.20 94 1088.7
20260905053803 54 148 2.0 7.0 0.10 0.19 0.19 94 1088.7
20260905053703 54 148 2.0 7.0 0.11 0.19 0.19 94 1088.7
20260905053603 54 154 1.0 7.0 0.11 0.19 0.19 94 1088.7
20260905053503 54 163 1.0 6.0 0.11 0.19 0.19 93 1088.7
20260905053403 54 178 1.0 4.0 0.11 0.19 0.19 94 1088.7
20260905053303 54 185 1.0 3.0 0.10 0.18 0.18 94 1088.7
20260905053203 32 0 0.0 0.0 0.00 0.00 0.00 1
20260905053103 54 197 1.0 3.0 0.10 0.18 0.18 93 1088.7
20260905053003 32 0 0.0 0.0 0.00 0.00 0.00 1
20260905052918 54 233 1.0 6.0 0.10 0.18 0.18 93 1088.7
20260905052903 54 252 1.0 8.0 0.10 0.18 0.18 93 1088.7
20260905052803 54 265 1.0 8.0 0.10 0.18 0.18 93 1088.7
20260905052717 54 264 2.0 8.0 0.10 0.18 0.18 93 1088.7
20260905052703 32 0 0.0 0.0 0.00 0.00 0.00 1
20260905052603 54 271 2.0 8.0 0.10 0.18 0.18 93 1088.7
20260905052503 32 0 0.0 0.0 0.00 0.00 0.00 1
20260905052403 54 273 3.0 8.0 0.09 0.17 0.17 93 1088.7
20260905052306 54 274 3.0 8.0 0.09 0.17 0.17 93 1088.7
20260905052218 54 278 3.0 8.0 0.09 0.17 0.17 93 1088.7
20260905052203 54 280 3.0 8.0 0.09 0.17 0.17 93 1088.7
20260905052103 32 0 0.0 0.0 0.00 0.00 0.00 1
20260905052017 54 278 3.0 8.0 0.09 0.17 0.17 93 1088.7
20260905052003 32 0 0.0 0.0 0.00 0.00 0.00 1
20260905051903 54 272 3.0 8.0 0.09 0.17 0.17 93 1088.7
20260905051816 54 270 3.0 7.0 0.08 0.16 0.16 93 1088.7
20260905051703 54 276 2.0 7.0 0.08 0.16 0.16 93 1088.7
20260905051618 54 269 2.0 7.0 0.08 0.16 0.16 93 1088.7
20260905051603 32 0 0.0 0.0 0.00 0.00 0.00 1
20260905051503 54 268 2.0 7.0 0.08 0.16 0.16 93 1088.7
20260905051417 54 265 2.0 7.0 0.08 0.16 0.16 93 1088.7
20260905051318 54 263 2.0 7.0 0.07 0.15 0.16 93 1088.7
20260905051303 54 259 2.0 6.0 0.07 0.15 0.15 93 1088.7
20260905051203 32 0 0.0 0.0 0.00 0.00 0.00 1
20260905051103 32 0 0.0 0.0 0.00 0.00 0.00 1
20260905051003 32 0 0.0 0.0 0.00 0.00 0.00 1
20260905050903 54 248 1.0 6.0 0.07 0.15 0.15 93 1088.7
20260905050803 32 0 0.0 0.0 0.00 0.00 0.00 1
20260905050703 54 239 2.0 7.0 0.06 0.14 0.15 93 1088.7
20260905050603 54 237 2.0 7.0 0.06 0.14 0.14 93 1088.7
20260905050503 32 0 0.0 0.0 0.00 0.00 0.00 1
20260905050417 54 236 2.0 7.0 0.06 0.14 0.14 92 1088.7
20260905050403 32 0 0.0 0.0 0.00 0.00 0.00 1
20260905050303 32 0 0.0 0.0 0.00 0.00 0.00 1
20260905050203 32 0 0.0 0.0 0.00 0.00 0.00 1
20260905050117 55 235 2.0 7.0 0.05 0.13 0.13 92 1088.7
20260905050103 55 236 2.0 7.0 0.05 0.13 0.13 92 1088.7
20260905050017 55 244 3.0 8.0 0.05 0.13 0.13 92 1088.7
20260905050003 32 0 0.0 0.0 0.00 0.00 0.00 1
20260905045903 32 0 0.0 0.0 0.00 0.00 0.00 1
20260905045803 32 0 0.0 0.0 0.00 0.00 0.00 1
20260905045703 32 0 0.0 0.0 0.00 0.00 0.00 1
20260905045603 55 261 3.0 13.0 0.04 0.12 0.12 92 1088.7
20260905045503 55 267 4.0 13.0 0.04 0.12 0.12 92 1088.7
20260905045403 32 0 0.0 0.0 0.00 0.00 0.00 1
20260905045305 32 0 0.0 0.0 0.00 0.00 0.00 1
20260905045203 55 277 5.0 14.0 0.03 0.11 0.11 92 1088.7
20260905045116 55 279 5.0 14.0 0.03 0.11 0.11 92 1088.7
20260905045103 32 0 0.0 0.0 0.00 0.00 0.00 1
20260905045003 55 276 5.0 14.0 0.03 0.11 0.11 91 1088.7
20260905044918 55 277 5.0 14.0 0.02 0.10 0.10 91 1088.7
20260905044903 32 0 0.0 0.0 0.00 0.00 0.00 1
20260905044803 55 273 5.0 14.0 0.02 0.10 0.10 91 1088.7
20260905044717 55 274 4.0 14.0 0.02 0.10 0.10 91 1088.7
20260905044703 32 0 0.0 0.0 0.00 0.00 0.00 1
20260905044618 56 274 4.0 14.0 0.01 0.09 0.10 91 1088.7
20260905044603 32 0 0.0 0.0 0.00 0.00 0.00 1
20260905044503 32 0 0.0 0.0 0.00 0.00 0.00 1
20260905044403 32 0 0.0 0.0 0.00 0.00 0.00 1
20260905044303 56 263 3.0 9.0 0.01 0.09 0.09 92 1088.7
20260905044203 56 261 3.0 9.0 0.01 0.09 0.09 92 1088.7
20260905044104 56 263 3.0 9.0 0.01 0.09 0.09 92 1088.7
20260905044017 56 268 3.0 9.0 0.01 0.09 0.09 92 1088.7
20260905044003 56 265 3.0 9.0 0.01 0.09 0.09 92 1088.7
20260905043917 56 264 3.0 9.0 0.02 0.09 0.09 92 1088.7
20260905043903 32 0 0.0 0.0 0.00 0.00 0.00 1
20260905043803 32 0 0.0 0.0 0.00 0.00 0.00 1
20260905043717 56 270 3.0 9.0 0.01 0.08 0.09 92 1088.7
20260905043713 32 0 0.0 0.0 0.00 0.00 0.00 1
20260905043603 56 270 3.0 9.0 0.01 0.08 0.08 92 1088.7
20260905043513 32 0 0.0 0.0 0.00 0.00 0.00 1
20260905043403 32 0 0.0 0.0 0.00 0.00 0.00 1
20260905043303 56 270 3.0 6.0 0.01 0.08 0.08 92 1088.7
20260905043203 32 0 0.0 0.0 0.00 0.00 0.00 1
20260905043103 56 261 3.0 6.0 0.02 0.08 0.08 92 1088.7
20260905043017 56 258 3.0 6.0 0.02 0.08 0.08 92 1088.7
20260905043014 32 0 0.0 0.0 0.00 0.00 0.00 1
20260905043003 56 260 3.0 6.0 0.02 0.08 0.08 92 1088.7
20260905042903 32 0 0.0 0.0 0.00 0.00 0.00 1
20260905042703 56 260 2.0 6.0 0.02 0.08 0.08 93 1088.7
20260905042603 32 0 0.0 0.0 0.00 0.00 0.00 1
20260905042503 32 0 0.0 0.0 0.00 0.00 0.00 1
20260905042403 32 0 0.0 0.0 0.00 0.00 0.00 1
20260905042306 32 0 0.0 0.0 0.00 0.00 0.00 1
20260905042203 56 271 2.0 4.0 0.02 0.08 0.08 93 1088.7
20260905042103 32 0 0.0 0.0 0.00 0.00 0.00 1
20260905042003 32 0 0.0 0.0 0.00 0.00 0.00 1
20260905041903 32 0 0.0 0.0 0.00 0.00 0.00 1
20260905041803 56 274 2.0 4.0 0.02 0.08 0.08 93 1088.7
20260905041703 56 274 2.0 4.0 0.02 0.08 0.08 93 1088.7
20260905041603 56 274 2.0 6.0 0.02 0.08 0.08 93 1088.7
20260905041503 32 0 0.0 0.0 0.00 0.00 0.00 1
20260905041403 56 268 2.0 6.0 0.02 0.08 0.08 93 1088.7
20260905041303 56 264 2.0 6.0 0.02 0.08 0.08 93 1088.7
20260905041203 32 0 0.0 0.0 0.00 0.00 0.00 1
20260905041103 56 258 1.0 6.0 0.02 0.08 0.08 93 1088.7
20260905041003 56 256 1.0 6.0 0.02 0.08 0.08 93 1088.7
20260905040903 56 254 2.0 6.0 0.02 0.08 0.08 93 1088.7
20260905040818 56 253 2.0 6.0 0.02 0.08 0.08 93 1088.7
20260905040803 32 0 0.0 0.0 0.00 0.00 0.00 1
20260905040703 32 0 0.0 0.0 0.00 0.00 0.00 1
20260905040603 32 0 0.0 0.0 0.00 0.00 0.00 1
20260905040503 32 0 0.0 0.0 0.00 0.00 0.00 1
20260905040403 32 0 0.0 0.0 0.00 0.00 0.00 1
20260905040303 56 257 1.0 4.0 0.02 0.08 0.08 92 1088.7
20260905040203 32 0 0.0 0.0 0.00 0.00 0.00 1
20260905040103 56 258 1.0 4.0 0.02 0.08 0.08 92 1088.7
20260905040003 32 0 0.0 0.0 0.00 0.00 0.00 1
20260905035903 32 0 0.0 0.0 0.00 0.00 0.00 1
20260905035818 56 254 1.0 3.0 0.03 0.08 0.08 92 1088.7
20260905035803 32 0 0.0 0.0 0.00 0.00 0.00 1
20260905035703 32 0 0.0 0.0 0.00 0.00 0.00 1
20260905035603 32 0 0.0 0.0 0.00 0.00 0.00 1
20260905035503 32 0 0.0 0.0 0.00 0.00 0.00 1
20260905035403 32 0 0.0 0.0 0.00 0.00 0.00 1
20260905035306 32 0 0.0 0.0 0.00 0.00 0.00 1
20260905035203 32 0 0.0 0.0 0.00 0.00 0.00 1
20260905035103 32 0 0.0 0.0 0.00 0.00 0.00 1
20260905035003 32 0 0.0 0.0 0.00 0.00 0.00 1
20260905034903 32 0 0.0 0.0 0.00 0.00 0.00 1
20260905034803 57 206 0.0 2.0 0.06 0.08 0.08 92 1088.7
20260905034703 32 0 0.0 0.0 0.00 0.00 0.00 1
20260905034603 32 0 0.0 0.0 0.00 0.00 0.00 1
20260905034503 32 0 0.0 0.0 0.00 0.00 0.00 1
20260905034403 32 0 0.0 0.0 0.00 0.00 0.00 1
20260905034317 57 251 1.0 3.0 0.06 0.08 0.08 91 1088.7
20260905034303 32 0 0.0 0.0 0.00 0.00 0.00 1
20260905034203 32 0 0.0 0.0 0.00 0.00 0.00 1
20260905034103 32 0 0.0 0.0 0.00 0.00 0.00 1
20260905034003 32 0 0.0 0.0 0.00 0.00 0.00 1
20260905033903 57 272 1.0 3.0 0.06 0.07 0.07 92 1088.7
20260905033803 57 268 1.0 3.0 0.06 0.07 0.07 92 1088.7
20260905033703 57 263 1.0 3.0 0.06 0.07 0.07 92 1088.7
20260905033603 32 0 0.0 0.0 0.00 0.00 0.00 1
20260905033518 57 254 1.0 3.0 0.06 0.07 0.07 92 1088.7
20260905033503 32 0 0.0 0.0 0.00 0.00 0.00 1
20260905033403 57 248 1.0 3.0 0.06 0.07 0.07 92 1088.7
20260905033203 57 236 1.0 3.0 0.05 0.06 0.06 92 1088.7
20260905033103 57 234 1.0 3.0 0.05 0.06 0.06 92 1088.7
20260905033017 57 232 1.0 3.0 0.05 0.06 0.06 92 1088.7
20260905033003 57 232 1.0 3.0 0.05 0.06 0.06 91 1088.7
20260905032903 57 245 1.0 3.0 0.05 0.06 0.06 91 1088.7
20260905032803 32 0 0.0 0.0 0.00 0.00 0.00 1
20260905032703 32 0 0.0 0.0 0.00 0.00 0.00 1
20260905032603 57 266 1.0 4.0 0.05 0.06 0.06 91 1088.7
20260905032503 32 0 0.0 0.0 0.00 0.00 0.00 1
20260905032403 32 0 0.0 0.0 0.00 0.00 0.00 1
20260905032306 57 267 1.0 4.0 0.05 0.06 0.06 91 1088.7
20260905032203 32 0 0.0 0.0 0.00 0.00 0.00 1
20260905032103 57 268 2.0 4.0 0.05 0.06 0.06 91 1088.7
20260905032003 57 270 2.0 4.0 0.05 0.06 0.06 91 1088.7
20260905031903 57 270 2.0 4.0 0.05 0.06 0.06 91 1088.7
20260905031803 32 0 0.0 0.0 0.00 0.00 0.00 1
20260905031703 32 0 0.0 0.0 0.00 0.00 0.00 1
20260905031603 32 0 0.0 0.0 0.00 0.00 0.00 1
20260905031503 57 279 2.0 4.0 0.05 0.06 0.06 91 1088.7
20260905031418 57 281 2.0 4.0 0.05 0.06 0.06 91 1088.7
20260905031403 57 282 2.0 4.0 0.05 0.06 0.06 91 1088.7
20260905031303 32 0 0.0 0.0 0.00 0.00 0.00 1
20260905031203 32 0 0.0 0.0 0.00 0.00 0.00 1
20260905031118 57 290 2.0 4.0 0.05 0.06 0.06 91 1088.5
20260905031103 57 288 2.0 4.0 0.05 0.06 0.06 91 1088.5
20260905031003 58 284 2.0 4.0 0.05 0.06 0.06 90 1088.4
20260905030903 32 0 0.0 0.0 0.00 0.00 0.00 1
20260905030803 32 0 0.0 0.0 0.00 0.00 0.00 1
20260905030703 32 0 0.0 0.0 0.00 0.00 0.00 1
20260905030617 58 264 2.0 4.0 0.05 0.06 0.06 90 1088.5
20260905030603 58 263 2.0 4.0 0.05 0.06 0.06 90 1088.5
20260905030503 58 248 2.0 4.0 0.05 0.06 0.06 91 1088.7
20260905030418 58 248 2.0 6.0 0.05 0.06 0.06 90 1088.4
20260905030403 32 0 0.0 0.0 0.00 0.00 0.00 1
20260905030303 32 0 0.0 0.0 0.00 0.00 0.00 1
20260905030016 58 252 3.0 10.0 0.04 0.05 0.06 90 1088.7
20260905030003 58 252 3.0 10.0 0.04 0.05 0.05 90 1088.7
20260905025903 58 258 3.0 10.0 0.04 0.05 0.05 90 1088.7
20260905025803 32 0 0.0 0.0 0.00 0.00 0.00 1
20260905025703 58 274 3.0 10.0 0.04 0.04 0.04 89 1088.7
20260905025603 58 277 3.0 10.0 0.04 0.04 0.04 89 1088.7
20260905025503 58 282 4.0 10.0 0.04 0.04 0.04 89 1088.7
20260905025403 32 0 0.0 0.0 0.00 0.00 0.00 1
20260905025306 32 0 0.0 0.0 0.00 0.00 0.00 1
20260905025203 58 289 3.0 7.0 0.03 0.03 0.03 89 1088.7
20260905025103 32 0 0.0 0.0 0.00 0.00 0.00 1
20260905025003 58 285 3.0 7.0 0.02 0.02 0.02 90 1088.7
20260905024903 58 291 3.0 7.0 0.02 0.02 0.02 89 1088.7
20260905024803 32 0 0.0 0.0 0.00 0.00 0.00 1
20260905024718 58 286 3.0 7.0 0.02 0.02 0.02 89 1088.7
20260905024703 32 0 0.0 0.0 0.00 0.00 0.00 1
20260905024603 32 0 0.0 0.0 0.00 0.00 0.00 1
20260905024503 32 0 0.0 0.0 0.00 0.00 0.00 1
20260905024403 59 279 3.0 7.0 0.02 0.02 0.02 89 1088.7
20260905024303 59 279 3.0 7.0 0.02 0.02 0.02 89 1088.7
20260905024203 32 0 0.0 0.0 0.00 0.00 0.00 1
20260905024103 59 281 3.0 7.0 0.02 0.02 0.02 89 1088.7
20260905024003 59 280 3.0 7.0 0.02 0.02 0.02 89 1088.7
20260905023903 59 277 3.0 7.0 0.01 0.01 0.01 89 1088.7
20260905023803 32 0 0.0 0.0 0.00 0.00 0.00 1
20260905023703 32 0 0.0 0.0 0.00 0.00 0.00 1
20260905023603 59 266 2.0 7.0 0.01 0.01 0.01 89 1088.3
20260905023503 32 0 0.0 0.0 0.00 0.00 0.00 1
20260905023418 59 266 2.0 6.0 0.01 0.01 0.01 89 1088.7
20260905023403 32 0 0.0 0.0 0.00 0.00 0.00 1
20260905023303 59 263 2.0 4.0 0.01 0.01 0.01 89 1088.5
20260905023203 32 0 0.0 0.0 0.00 0.00 0.00 1
20260905023103 59 262 2.0 4.0 0.01 0.01 0.01 89 1088.3
20260905023003 59 261 2.0 8.0 0.01 0.01 0.01 89 1088.3
20260905022917 59 260 2.0 8.0 0.01 0.01 0.01 89 1088.4
20260905022903 59 258 2.0 8.0 0.01 0.01 0.01 89 1088.4
20260905022804 32 0 0.0 0.0 0.00 0.00 0.00 1
20260905022713 32 0 0.0 0.0 0.00 0.00 0.00 1
20260905022603 32 0 0.0 0.0 0.00 0.00 0.00 1
20260905022503 59 263 2.0 8.0 0.01 0.01 0.01 89 1088.3
20260905022403 59 263 3.0 8.0 0.01 0.01 0.01 88 1088.5
20260905022316 59 263 3.0 8.0 0.01 0.01 0.01 88 1088.3
20260905022306 32 0 0.0 0.0 0.00 0.00 0.00 1
20260905022203 32 0 0.0 0.0 0.00 0.00 0.00 1
20260905022103 32 0 0.0 0.0 0.00 0.00 0.00 1
20260905022003 32 0 0.0 0.0 0.00 0.00 0.00 1
20260905021917 59 261 2.0 7.0 0.01 0.01 0.01 88 1088.4
20260905021903 32 0 0.0 0.0 0.00 0.00 0.00 1
20260905021803 32 0 0.0 0.0 0.00 0.00 0.00 1
20260905021718 59 255 1.0 7.0 0.01 0.01 0.01 87 1088.5
20260905021703 32 0 0.0 0.0 0.00 0.00 0.00 1
20260905021603 59 252 1.0 7.0 0.01 0.01 0.01 87 1088.2
20260905021503 32 0 0.0 0.0 0.00 0.00 0.00 1
20260905021418 59 255 1.0 7.0 0.01 0.01 0.01 88 1088.1
20260905021404 32 0 0.0 0.0 0.00 0.00 0.00 1
20260905021318 60 242 1.0 4.0 0.01 0.01 0.01 87 1087.9
20260905021303 60 234 0.0 4.0 0.01 0.01 0.01 87 1087.9
20260905021217 60 239 0.0 3.0 0.01 0.01 0.01 86 1088.1
20260905021203 32 0 0.0 0.0 0.00 0.00 0.00 1
20260905021103 32 0 0.0 0.0 0.00 0.00 0.00 1
20260905021003 32 0 0.0 0.0 0.00 0.00 0.00 1
20260905020903 60 256 1.0 4.0 0.01 0.01 0.01 85 1088.2
20260905020814 32 0 0.0 0.0 0.00 0.00 0.00 1
20260905020803 60 258 1.0 4.0 0.01 0.01 0.01 84 1088.1
20260905020703 60 262 1.0 4.0 0.01 0.01 0.01 84 1087.8
20260905020604 60 259 1.0 4.0 0.01 0.01 0.01 84 1087.8
20260905020503 32 0 0.0 0.0 0.00 0.00 0.00 1
20260905020403 32 0 0.0 0.0 0.00 0.00 0.00 1
20260905020303 60 258 1.0 6.0 0.01 0.01 0.01 84 1088.2
20260905020203 32 0 0.0 0.0 0.00 0.00 0.00 1
20260905020103 32 0 0.0 0.0 0.00 0.00 0.00 1
20260905020004 61 254 2.0 8.0 0.01 0.01 0.01 83 1088.1
20260905015903 61 257 3.0 8.0 0.01 0.01 0.01 84 1088.3
20260905015803 32 0 0.0 0.0 0.00 0.00 0.00 1
20260905015704 61 260 3.0 8.0 0.00 0.00 0.00 83 1088.3
20260905015603 32 0 0.0 0.0 0.00 0.00 0.00 1
20260905015503 32 0 0.0 0.0 0.00 0.00 0.00 1
20260905015403 61 266 4.0 8.0 0.00 0.00 0.00 83 1087.9
20260905015306 32 0 0.0 0.0 0.00 0.00 0.00 1
20260905015204 32 0 0.0 0.0 0.00 0.00 0.00 1
20260905015103 32 0 0.0 0.0 0.00 0.00 0.00 1
20260905015003 32 0 0.0 0.0 0.00 0.00 0.00 1
20260905014903 32 0 0.0 0.0 0.00 0.00 0.00 1
20260905014803 61 278 2.0 7.0 0.00 0.00 0.00 81 1087.5
20260905014718 61 285 2.0 7.0 0.00 0.00 0.00 81 1087.6
20260905014703 32 0 0.0 0.0 0.00 0.00 0.00 1
20260905014603 32 0 0.0 0.0 0.00 0.00 0.00 1
20260905014503 32 0 0.0 0.0 0.00 0.00 0.00 1
20260905014403 61 301 2.0 8.0 0.00 0.00 0.00 81 1087.7
20260905014304 61 310 2.0 8.0 0.00 0.00 0.00 81 1087.7
20260905014203 61 314 2.0 8.0 0.00 0.00 0.00 81 1087.7
20260905014103 61 316 2.0 8.0 0.00 0.00 0.00 81 1087.8
20260905014003 32 0 0.0 0.0 0.00 0.00 0.00 1
20260905013903 61 307 3.0 8.0 0.00 0.00 0.00 81 1087.8
20260905013804 32 0 0.0 0.0 0.00 0.00 0.00 1
20260905013703 62 308 2.0 8.0 0.00 0.00 0.00 81 1087.8
20260905013603 32 0 0.0 0.0 0.00 0.00 0.00 1
20260905013503 32 0 0.0 0.0 0.00 0.00 0.00 1
20260905013417 62 314 2.0 7.0 0.00 0.00 0.00 80 1087.7
20260905013403 32 0 0.0 0.0 0.00 0.00 0.00 1
20260905013303 62 317 3.0 7.0 0.00 0.00 0.00 81 1087.7
20260905013203 32 0 0.0 0.0 0.00 0.00 0.00 1
20260905013103 32 0 0.0 0.0 0.00 0.00 0.00 1
20260905013003 32 0 0.0 0.0 0.00 0.00 0.00 1
20260905012903 62 321 3.0 7.0 0.00 0.00 0.00 80 1087.9
20260905012803 62 323 3.0 7.0 0.00 0.00 0.00 80 1087.8
20260905012703 62 311 3.0 8.0 0.00 0.00 0.00 80 1087.8
20260905012603 62 307 4.0 8.0 0.00 0.00 0.00 80 1087.8
20260905012503 32 0 0.0 0.0 0.00 0.00 0.00 1
20260905012403 62 295 3.0 8.0 0.00 0.00 0.00 80 1087.9
20260905012318 62 285 3.0 8.0 0.00 0.00 0.00 80 1087.7
20260905012306 32 0 0.0 0.0 0.00 0.00 0.00 1
20260905012203 62 280 3.0 8.0 0.00 0.00 0.00 79 1088.1
20260905012103 32 0 0.0 0.0 0.00 0.00 0.00 1
20260905012003 62 279 4.0 9.0 0.00 0.00 0.00 79 1087.8
20260905011903 32 0 0.0 0.0 0.00 0.00 0.00 1
20260905011817 62 273 4.0 9.0 0.00 0.00 0.00 79 1087.9
20260905011803 32 0 0.0 0.0 0.00 0.00 0.00 1
20260905011703 32 0 0.0 0.0 0.00 0.00 0.00 1
20260905011603 32 0 0.0 0.0 0.00 0.00 0.00 1
20260905011503 32 0 0.0 0.0 0.00 0.00 0.00 1
20260905011403 62 293 4.0 9.0 0.00 0.00 0.00 78 1087.8
20260905011303 32 0 0.0 0.0 0.00 0.00 0.00 1
20260905011203 32 0 0.0 0.0 0.00 0.00 0.00 1
20260905011103 32 0 0.0 0.0 0.00 0.00 0.00 1
20260905011003 32 0 0.0 0.0 0.00 0.00 0.00 1
20260905010903 62 300 3.0 10.0 0.00 0.00 0.00 78 1087.7
20260905010803 63 300 3.0 10.0 0.00 0.00 0.00 77 1087.8
20260905010703 63 298 3.0 10.0 0.00 0.00 0.00 77 1087.9
20260905010603 63 299 4.0 10.0 0.00 0.00 0.00 77 1087.7
20260905010517 63 301 4.0 10.0 0.00 0.00 0.00 77 1087.6
20260905010503 32 0 0.0 0.0 0.00 0.00 0.00 1
20260905010403 32 0 0.0 0.0 0.00 0.00 0.00 1
20260905010303 32 0 0.0 0.0 0.00 0.00 0.00 1
20260905010213 32 0 0.0 0.0 0.00 0.00 0.00 1
20260905010203 63 308 4.0 18.0 0.00 0.00 0.00 76 1087.9
20260905010103 63 312 4.0 18.0 0.00 0.00 0.00 76 1087.9
20260905010003 63 314 5.0 18.0 0.00 0.00 0.00 76 1087.8
20260905005903 63 310 6.0 18.0 0.00 0.00 0.00 76 1087.9
20260905005803 32 0 0.0 0.0 0.00 0.00 0.00 1
20260905005704 32 0 0.0 0.0 0.00 0.00 0.00 1
20260905005603 32 0 0.0 0.0 0.00 0.00 0.00 1
20260905005503 63 304 7.0 18.0 0.00 0.00 0.00 76 1087.9
20260905005403 32 0 0.0 0.0 0.00 0.00 0.00 1
20260905005306 63 297 7.0 16.0 0.00 0.00 0.00 76 1088.0
20260905005203 63 295 7.0 16.0 0.00 0.00 0.00 76 1087.7
20260905005103 32 0 0.0 0.0 0.00 0.00 0.00 1
20260905005003 63 289 7.0 16.0 0.00 0.00 0.00 75 1087.9
20260905004903 63 286 8.0 15.0 0.00 0.00 0.00 75 1087.8
20260905004803 63 288 8.0 15.0 0.00 0.00 0.00 75 1087.8
20260905004703 63 284 8.0 15.0 0.00 0.00 0.00 75 1087.7
20260905004603 63 286 8.0 15.0 0.00 0.00 0.00 75 1087.9
20260905004503 32 0 0.0 0.0 0.00 0.00 0.00 1
20260905004417 63 296 7.0 15.0 0.00 0.00 0.00 75 1087.7
20260905004414 32 0 0.0 0.0 0.00 0.00 0.00 1
20260905004403 63 297 7.0 15.0 0.00 0.00 0.00 75 1087.7
20260905004303 63 300 7.0 15.0 0.00 0.00 0.00 75 1087.6
20260905004213 32 0 0.0 0.0 0.00 0.00 0.00 1
20260905004103 63 300 7.0 15.0 0.00 0.00 0.00 76 1087.7
20260905004003 63 302 7.0 15.0 0.00 0.00 0.00 75 1087.7
20260905003903 63 305 7.0 16.0 0.00 0.00 0.00 75 1087.5
20260905003817 63 307 7.0 16.0 0.00 0.00 0.00 75 1087.6
20260905003803 32 0 0.0 0.0 0.00 0.00 0.00 1
20260905003703 32 0 0.0 0.0 0.00 0.00 0.00 1
20260905003603 32 0 0.0 0.0 0.00 0.00 0.00 1
20260905003503 32 0 0.0 0.0 0.00 0.00 0.00 1
20260905003403 32 0 0.0 0.0 0.00 0.00 0.00 1
20260905003303 63 300 9.0 22.0 0.00 0.00 0.00 76 1087.4
20260905003203 63 305 9.0 22.0 0.00 0.00 0.00 77 1087.3
20260905003113 32 0 0.0 0.0 0.00 0.00 0.00 1
20260905003103 63 309 9.0 22.0 0.00 0.00 0.00 76 1087.3
20260905003017 63 309 9.0 22.0 0.00 0.00 0.00 77 1087.1
20260905003003 32 0 0.0 0.0 0.00 0.00 0.00 1
20260905002903 63 309 9.0 22.0 0.00 0.00 0.00 77 1087.3
20260905002803 32 0 0.0 0.0 0.00 0.00 0.00 1
20260905002717 63 315 9.0 21.0 0.00 0.00 0.00 77 1087.3
20260905002704 63 317 9.0 21.0 0.00 0.00 0.00 77 1087.3
20260905002603 32 0 0.0 0.0 0.00 0.00 0.00 1
20260905002503 32 0 0.0 0.0 0.00 0.00 0.00 1
20260905002403 32 0 0.0 0.0 0.00 0.00 0.00 1
20260905002306 63 323 8.0 16.0 0.00 0.00 0.00 77 1087.4
20260905002203 32 0 0.0 0.0 0.00 0.00 0.00 1
20260905002103 32 0 0.0 0.0 0.00 0.00 0.00 1
20260905002003 63 324 8.0 19.0 0.00 0.00 0.00 77 1087.3
20260905001903 32 0 0.0 0.0 0.00 0.00 0.00 1
20260905001803 32 0 0.0 0.0 0.00 0.00 0.00 1
20260905001703 64 325 9.0 21.0 0.00 0.00 0.00 77 1086.9
20260905001603 32 0 0.0 0.0 0.00 0.00 0.00 1
20260905001503 64 335 9.0 21.0 0.00 0.00 0.00 77 1086.8
20260905001414 32 0 0.0 0.0 0.00 0.00 0.00 1
20260905001403 64 339 9.0 21.0 0.00 0.00 0.00 77 1087.0
20260905001303 32 0 0.0 0.0 0.00 0.00 0.00 1
20260905001218 64 337 10.0 21.0 0.00 0.00 0.00 77 1086.9
20260905001203 64 338 10.0 21.0 0.00 0.00 0.00 77 1086.9
20260905001103 32 0 0.0 0.0 0.00 0.00 0.00 1
20260905001003 32 0 0.0 0.0 0.00 0.00 0.00 1
20260905000903 32 0 0.0 0.0 0.00 0.00 0.00 1
20260905000816 64 355 11.0 25.0 0.00 0.00 0.00 76 1086.4
20260905000803 64 354 11.0 25.0 0.00 0.00 0.00 76 1086.4
20260905000703 64 355 11.0 25.0 0.00 0.00 0.00 76 1086.9
20260905000603 32 0 0.0 0.0 0.00 0.00 0.00 1
20260905000518 65 351 11.0 25.0 0.00 0.00 0.00 76 1086.6
20260905000503 32 0 0.0 0.0 0.00 0.00 0.00 1
20260905000403 65 347 11.0 25.0 0.00 0.00 0.00 76 1086.5
20260905000318 65 348 11.0 25.0 0.00 0.00 0.00 76 1086.8
20260905000213 32 0 0.0 0.0 0.00 0.00 0.00 1
20260905000204 65 347 11.0 25.0 0.00 0.00 0.00 76 1086.6
20260905000103 32 0 0.0 0.0 0.00 0.00 0.00 1
20260905000014 32 0 0.0 0.0 0.00 0.00 0.00 1
20260905000003 65 338 11.0 22.0 0.00 0.00 0.00 76 1086.4
20260904235903 65 332 10.0 22.0 0.00 0.00 0.00 76 1086.5
20260904235803 65 324 10.0 22.0 0.00 0.00 0.00 76 1086.5
20260904235703 32 0 0.0 0.0 0.00 0.00 0.00 1
20260904235618 65 309 9.0 22.0 0.00 0.00 0.00 77 1086.2
20260904235603 32 0 0.0 0.0 0.00 0.00 0.00 1
20260904235513 32 0 0.0 0.0 0.00 0.00 0.00 1
20260904235503 65 306 9.0 22.0 0.00 0.00 0.00 78 1086.1
20260904235403 32 0 0.0 0.0 0.00 0.00 0.00 1
20260904235306 64 298 8.0 22.0 0.00 0.00 0.00 79 1086.0
20260904235203 32 0 0.0 0.0 0.00 0.00 0.00 1
20260904235103 64 290 7.0 19.0 0.00 0.00 0.00 81 1085.9
20260904235017 63 289 6.0 18.0 0.00 0.00 0.00 82 1085.9
20260904235004 32 0 0.0 0.0 0.00 0.00 0.00 1
20260904234903 62 283 5.0 18.0 0.00 0.00 0.00 83 1085.9
20260904234803 32 0 0.0 0.0 0.00 0.00 0.00 1
20260904234703 32 0 0.0 0.0 0.00 0.00 0.00 1
20260904234603 61 277 2.0 10.0 0.00 0.00 0.00 85 1085.9
20260904234503 60 280 2.0 7.0 0.00 0.00 0.00 86 1085.6
20260904234403 60 278 2.0 6.0 0.00 0.00 0.00 86 1085.6
20260904234303 32 0 0.0 0.0 0.00 0.00 0.00 1
20260904234203 60 281 1.0 4.0 0.00 0.00 0.00 86 1085.4
20260904234104 32 0 0.0 0.0 0.00 0.00 0.00 1
20260904234003 32 0 0.0 0.0 0.00 0.00 0.00 1
20260904233903 32 0 0.0 0.0 0.00 0.00 0.00 1
20260904233803 60 276 0.0 3.0 0.00 0.00 0.00 86 1085.3
20260904233703 60 276 0.0 3.0 0.00 0.00 0.00 86 1085.2
20260904233603 32 0 0.0 0.0 0.00 0.00 0.00 1
20260904233503 32 0 0.0 0.0 0.00 0.00 0.00 1
20260904233403 60 274 0.0 3.0 0.00 0.00 0.00 84 1085.2
20260904233303 32 0 0.0 0.0 0.00 0.00 0.00 1
20260904233203 60 0 0.0 0.0 0.00 0.00 0.00 85 1085.0
20260904233103 60 0 0.0 0.0 0.00 0.00 0.00 84 1084.7
20260904233003 60 0 0.0 0.0 0.00 0.00 0.00 84 1085.0
20260904232903 60 0 0.0 0.0 0.00 0.00 0.00 85 1085.0
20260904232803 60 0 0.0 0.0 0.00 0.00 0.00 84 1084.9
20260904232703 32 0 0.0 0.0 0.00 0.00 0.00 1
20260904232603 60 0 0.0 0.0 0.00 0.00 0.00 84 1084.7
20260904232503 60 0 0.0 0.0 0.00 0.00 0.00 84 1085.1
20260904232403 32 0 0.0 0.0 0.00 0.00 0.00 1
20260904232306 32 0 0.0 0.0 0.00 0.00 0.00 1
20260904232203 32 0 0.0 0.0 0.00 0.00 0.00 1
20260904232103 60 0 0.0 0.0 0.00 0.00 0.00 83 1084.9
20260904232003 60 0 0.0 0.0 0.00 0.00 0.00 83 1085.0
20260904231903 60 0 0.0 0.0 0.00 0.00 0.00 83 1084.9
20260904231803 32 0 0.0 0.0 0.00 0.00 0.00 1
20260904231703 32 0 0.0 0.0 0.00 0.00 0.00 1
20260904231603 60 206 0.0 3.0 0.00 0.00 0.00 83 1085.0
20260904231503 60 206 0.0 3.0 0.00 0.00 0.00 83 1085.0
20260904231403 32 0 0.0 0.0 0.00 0.00 0.00 1
20260904231303 60 206 0.0 3.0 0.00 0.00 0.00 83 1085.0
20260904231203 32 0 0.0 0.0 0.00 0.00 0.00 1
20260904231103 61 206 0.0 3.0 0.00 0.00 0.00 83 1085.0
20260904231003 32 0 0.0 0.0 0.00 0.00 0.00 1
20260904230903 61 206 0.0 3.0 0.00 0.00 0.00 83 1085.0
20260904230804 61 206 0.0 3.0 0.00 0.00 0.00 83 1084.7
20260904230703 32 0 0.0 0.0 0.00 0.00 0.00 1
20260904230603 32 0 0.0 0.0 0.00 0.00 0.00 1
20260904230503 61 0 0.0 0.0 0.00 0.00 0.00 83 1085.0
20260904230403 32 0 0.0 0.0 0.00 0.00 0.00 1
20260904230303 32 0 0.0 0.0 0.00 0.00 0.00 1
20260904230203 61 0 0.0 0.0 0.00 0.00 0.00 83 1085.1
20260904230003 32 0 0.0 0.0 0.00 0.00 0.00 1
20260904225803 61 0 0.0 0.0 0.00 0.00 0.00 83 1084.9
20260904225703 32 0 0.0 0.0 0.00 0.00 0.00 1
20260904225617 61 0 0.0 0.0 0.00 0.00 0.00 83 1084.7
20260904225603 32 0 0.0 0.0 0.00 0.00 0.00 1
20260904225503 32 0 0.0 0.0 0.00 0.00 0.00 1
20260904225403 32 0 0.0 0.0 0.00 0.00 0.00 1
20260904225305 61 197 0.0 2.0 0.00 0.00 0.00 83 1084.7
20260904225203 32 0 0.0 0.0 0.00 0.00 0.00 1
20260904225103 32 0 0.0 0.0 0.00 0.00 0.00 1
20260904225003 32 0 0.0 0.0 0.00 0.00 0.00 1
20260904224903 32 0 0.0 0.0 0.00 0.00 0.00 1
20260904224803 32 0 0.0 0.0 0.00 0.00 0.00 1
20260904224713 32 0 0.0 0.0 0.00 0.00 0.00 1
20260904224703 61 197 0.0 2.0 0.00 0.00 0.00 83 1085.0
20260904224603 61 197 0.0 2.0 0.00 0.00 0.00 83 1084.9
20260904224518 61 221 0.0 2.0 0.00 0.00 0.00 83 1085.0
20260904224503 61 198 0.0 1.0 0.00 0.00 0.00 83 1085.0
20260904224403 61 0 0.0 0.0 0.00 0.00 0.00 83 1084.9
20260904224303 32 0 0.0 0.0 0.00 0.00 0.00 1
20260904224203 61 213 0.0 2.0 0.00 0.00 0.00 83 1084.9
20260904224103 32 0 0.0 0.0 0.00 0.00 0.00 1
20260904224003 32 0 0.0 0.0 0.00 0.00 0.00 1
20260904223903 61 188 0.0 4.0 0.00 0.00 0.00 84 1084.9
20260904223803 61 187 0.0 4.0 0.00 0.00 0.00 83 1084.7
20260904223703 32 0 0.0 0.0 0.00 0.00 0.00 1
20260904223603 61 192 0.0 4.0 0.00 0.00 0.00 84 1084.9
20260904223503 32 0 0.0 0.0 0.00 0.00 0.00 1
20260904223403 32 0 0.0 0.0 0.00 0.00 0.00 1
20260904223317 61 186 0.0 4.0 0.00 0.00 0.00 84 1085.0
20260904223303 61 184 0.0 4.0 0.00 0.00 0.00 84 1085.0
20260904223203 61 183 0.0 4.0 0.00 0.00 0.00 84 1085.0
20260904223103 32 0 0.0 0.0 0.00 0.00 0.00 1
20260904223003 32 0 0.0 0.0 0.00 0.00 0.00 1
20260904222904 61 201 0.0 1.0 0.00 0.00 0.00 84 1084.6
20260904222812 32 0 0.0 0.0 0.00 0.00 0.00 1
20260904222803 61 207 0.0 1.0 0.00 0.00 0.00 84 1085.0
20260904222703 32 0 0.0 0.0 0.00 0.00 0.00 1
20260904222614 32 0 0.0 0.0 0.00 0.00 0.00 1
20260904222603 61 206 0.0 1.0 0.00 0.00 0.00 83 1085.0
20260904222503 32 0 0.0 0.0 0.00 0.00 0.00 1
20260904222403 61 212 0.0 1.0 0.00 0.00 0.00 83 1084.7
20260904222306 32 0 0.0 0.0 0.00 0.00 0.00 1
20260904222203 32 0 0.0 0.0 0.00 0.00 0.00 1
20260904222103 61 256 0.0 1.0 0.00 0.00 0.00 83 1085.0
20260904222003 61 256 0.0 1.0 0.00 0.00 0.00 84 1084.9
20260904221903 32 0 0.0 0.0 0.00 0.00 0.00 1
20260904221803 32 0 0.0 0.0 0.00 0.00 0.00 1
20260904221703 61 282 0.0 1.0 0.00 0.00 0.00 83 1084.7
20260904221603 61 272 0.0 1.0 0.00 0.00 0.00 83 1084.5
20260904221503 32 0 0.0 0.0 0.00 0.00 0.00 1
20260904221403 61 244 0.0 1.0 0.00 0.00 0.00 83 1084.9
20260904221303 61 244 0.0 1.0 0.00 0.00 0.00 83 1084.9
20260904221203 32 0 0.0 0.0 0.00 0.00 0.00 1
20260904221103 32 0 0.0 0.0 0.00 0.00 0.00 1
20260904221003 32 0 0.0 0.0 0.00 0.00 0.00 1
20260904220903 32 0 0.0 0.0 0.00 0.00 0.00 1
20260904220803 32 0 0.0 0.0 0.00 0.00 0.00 1
20260904220703 32 0 0.0 0.0 0.00 0.00 0.00 1
20260904220603 32 0 0.0 0.0 0.00 0.00 0.00 1
20260904220503 61 206 0.0 2.0 0.00 0.00 0.00 82 1084.9
20260904220403 32 0 0.0 0.0 0.00 0.00 0.00 1
20260904220303 61 212 0.0 2.0 0.00 0.00 0.00 82 1084.6
20260904220203 32 0 0.0 0.0 0.00 0.00 0.00 1
20260904220004 61 208 0.0 2.0 0.00 0.00 0.00 82 1084.6
20260904215903 32 0 0.0 0.0 0.00 0.00 0.00 1
20260904215803 32 0 0.0 0.0 0.00 0.00 0.00 1
20260904215713 32 0 0.0 0.0 0.00 0.00 0.00 1
20260904215703 61 0 0.0 0.0 0.00 0.00 0.00 82 1084.9
20260904215603 32 0 0.0 0.0 0.00 0.00 0.00 1
20260904215503 61 0 0.0 0.0 0.00 0.00 0.00 82 1085.0
20260904215403 61 0 0.0 0.0 0.00 0.00 0.00 81 1084.7
20260904215305 32 0 0.0 0.0 0.00 0.00 0.00 1
20260904215203 32 0 0.0 0.0 0.00 0.00 0.00 1
20260904215103 32 0 0.0 0.0 0.00 0.00 0.00 1
20260904215003 61 0 0.0 0.0 0.00 0.00 0.00 81 1084.9
20260904214903 32 0 0.0 0.0 0.00 0.00 0.00 1
20260904214803 32 0 0.0 0.0 0.00 0.00 0.00 1
20260904214703 61 0 0.0 0.0 0.00 0.00 0.00 80 1085.0
20260904214613 32 0 0.0 0.0 0.00 0.00 0.00 1
20260904214603 61 0 0.0 0.0 0.00 0.00 0.00 80 1085.1
20260904214503 32 0 0.0 0.0 0.00 0.00 0.00 1
20260904214403 62 0 0.0 0.0 0.00 0.00 0.00 80 1084.9
20260904214303 32 0 0.0 0.0 0.00 0.00 0.00 1
20260904214203 32 0 0.0 0.0 0.00 0.00 0.00 1
20260904214103 62 0 0.0 0.0 0.00 0.00 0.00 80 1084.9
20260904214003 32 0 0.0 0.0 0.00 0.00 0.00 1
20260904213903 32 0 0.0 0.0 0.00 0.00 0.00 1
20260904213803 32 0 0.0 0.0 0.00 0.00 0.00 1
20260904213703 62 0 0.0 0.0 0.00 0.00 0.00 80 1084.7
20260904213603 32 0 0.0 0.0 0.00 0.00 0.00 1
20260904213503 32 0 0.0 0.0 0.00 0.00 0.00 1
20260904213403 62 0 0.0 0.0 0.00 0.00 0.00 80 1084.9
20260904213303 62 0 0.0 0.0 0.00 0.00 0.00 80 1084.7
20260904213204 32 0 0.0 0.0 0.00 0.00 0.00 1
20260904213103 32 0 0.0 0.0 0.00 0.00 0.00 1
20260904213003 32 0 0.0 0.0 0.00 0.00 0.00 1
20260904212903 32 0 0.0 0.0 0.00 0.00 0.00 1
20260904212803 32 0 0.0 0.0 0.00 0.00 0.00 1
20260904212703 62 0 0.0 0.0 0.00 0.00 0.00 79 1085.0
20260904212604 62 0 0.0 0.0 0.00 0.00 0.00 79 1084.5
20260904212503 62 0 0.0 0.0 0.00 0.00 0.00 79 1085.0
20260904212403 62 0 0.0 0.0 0.00 0.00 0.00 79 1085.0
20260904212306 62 0 0.0 0.0 0.00 0.00 0.00 79 1084.9
20260904212203 32 0 0.0 0.0 0.00 0.00 0.00 1
20260904212103 32 0 0.0 0.0 0.00 0.00 0.00 1
20260904212003 62 0 0.0 0.0 0.00 0.00 0.00 78 1084.9
20260904211903 62 0 0.0 0.0 0.00 0.00 0.00 78 1085.0
20260904211803 32 0 0.0 0.0 0.00 0.00 0.00 1
20260904211703 62 0 0.0 0.0 0.00 0.00 0.00 78 1084.7
20260904211603 62 0 0.0 0.0 0.00 0.00 0.00 78 1084.6
20260904211504 62 0 0.0 0.0 0.00 0.00 0.00 78 1084.6
20260904211418 62 0 0.0 0.0 0.00 0.00 0.00 78 1085.0
20260904211403 63 0 0.0 0.0 0.00 0.00 0.00 78 1085.0
20260904211303 32 0 0.0 0.0 0.00 0.00 0.00 1
20260904211203 32 0 0.0 0.0 0.00 0.00 0.00 1
20260904211103 63 0 0.0 0.0 0.00 0.00 0.00 77 1085.0
20260904211003 63 0 0.0 0.0 0.00 0.00 0.00 77 1084.6
20260904210903 32 0 0.0 0.0 0.00 0.00 0.00 1
20260904210803 63 0 0.0 0.0 0.00 0.00 0.00 77 1084.9
20260904210703 32 0 0.0 0.0 0.00 0.00 0.00 1
20260904210603 32 0 0.0 0.0 0.00 0.00 0.00 1
20260904210503 32 0 0.0 0.0 0.00 0.00 0.00 1
20260904210403 32 0 0.0 0.0 0.00 0.00 0.00 1
20260904210303 63 0 0.0 0.0 0.00 0.00 0.00 77 1084.7
20260904210203 32 0 0.0 0.0 0.00 0.00 0.00 1
20260904210018 63 0 0.0 0.0 0.00 0.00 0.00 77 1084.9
20260904210003 32 0 0.0 0.0 0.00 0.00 0.00 1
20260904205903 32 0 0.0 0.0 0.00 0.00 0.00 1
20260904205817 64 212 0.0 1.0 0.00 0.00 0.00 77 1085.0
20260904205803 32 0 0.0 0.0 0.00 0.00 0.00 1
20260904205703 64 212 0.0 1.0 0.00 0.00 0.00 77 1084.7
20260904205603 32 0 0.0 0.0 0.00 0.00 0.00 1
20260904205503 64 192 0.0 2.0 0.00 0.00 0.00 76 1085.2
20260904205403 32 0 0.0 0.0 0.00 0.00 0.00 1
20260904205305 64 167 0.0 2.0 0.00 0.00 0.00 76 1085.0
20260904205203 64 162 0.0 2.0 0.00 0.00 0.00 77 1085.2
20260904205103 32 0 0.0 0.0 0.00 0.00 0.00 1
20260904205003 32 0 0.0 0.0 0.00 0.00 0.00 1
20260904204903 32 0 0.0 0.0 0.00 0.00 0.00 1
20260904204803 32 0 0.0 0.0 0.00 0.00 0.00 1
20260904204703 32 0 0.0 0.0 0.00 0.00 0.00 1
20260904204603 32 0 0.0 0.0 0.00 0.00 0.00 1
20260904204514 32 0 0.0 0.0 0.00 0.00 0.00 1
20260904204403 32 0 0.0 0.0 0.00 0.00 0.00 1
20260904204318 64 141 0.0 1.0 0.00 0.00 0.00 76 1085.0
20260904204303 64 140 0.0 1.0 0.00 0.00 0.00 76 1085.0
20260904204203 64 133 0.0 1.0 0.00 0.00 0.00 75 1085.0
20260904204103 32 0 0.0 0.0 0.00 0.00 0.00 1
20260904204003 32 0 0.0 0.0 0.00 0.00 0.00 1
20260904203903 32 0 0.0 0.0 0.00 0.00 0.00 1
20260904203804 64 0 0.0 0.0 0.00 0.00 0.00 75 1085.0
20260904203703 64 0 0.0 0.0 0.00 0.00 0.00 74 1085.2
20260904203603 32 0 0.0 0.0 0.00 0.00 0.00 1
20260904203503 32 0 0.0 0.0 0.00 0.00 0.00 1
20260904203403 32 0 0.0 0.0 0.00 0.00 0.00 1
20260904203303 32 0 0.0 0.0 0.00 0.00 0.00 1
20260904203203 65 0 0.0 0.0 0.00 0.00 0.00 74 1085.1
20260904203103 32 0 0.0 0.0 0.00 0.00 0.00 1
20260904203018 65 0 0.0 0.0 0.00 0.00 0.00 75 1085.0
20260904203003 32 0 0.0 0.0 0.00 0.00 0.00 1
20260904202903 32 0 0.0 0.0 0.00 0.00 0.00 1
20260904202803 32 0 0.0 0.0 0.00 0.00 0.00 1
20260904202703 65 0 0.0 0.0 0.00 0.00 0.00 73 1085.0
20260904202604 32 0 0.0 0.0 0.00 0.00 0.00 1
20260904202503 32 0 0.0 0.0 0.00 0.00 0.00 1
20260904202403 32 0 0.0 0.0 0.00 0.00 0.00 1
20260904202305 65 0 0.0 0.0 0.00 0.00 0.00 72 1084.9
20260904202203 65 148 0.0 1.0 0.00 0.00 0.00 72 1085.0
20260904202103 32 0 0.0 0.0 0.00 0.00 0.00 1
20260904202003 66 145 0.0 4.0 0.00 0.00 0.00 72 1085.2
20260904201903 32 0 0.0 0.0 0.00 0.00 0.00 1
20260904201803 66 142 0.0 4.0 0.00 0.00 0.00 72 1084.7
20260904201703 32 0 0.0 0.0 0.00 0.00 0.00 1
20260904201603 32 0 0.0 0.0 0.00 0.00 0.00 1
20260904201503 32 0 0.0 0.0 0.00 0.00 0.00 1
20260904201403 32 0 0.0 0.0 0.00 0.00 0.00 1
20260904201304 32 0 0.0 0.0 0.00 0.00 0.00 1
20260904201203 66 142 0.0 4.0 0.00 0.00 0.00 72 1084.9
20260904201117 66 146 0.0 2.0 0.00 0.00 0.00 72 1085.1
20260904201103 32 0 0.0 0.0 0.00 0.00 0.00 1
20260904201003 67 138 0.0 2.0 0.00 0.00 0.00 71 1085.0
20260904200903 32 0 0.0 0.0 0.00 0.00 0.00 1
20260904200803 67 181 0.0 3.0 0.00 0.00 0.00 70 1085.0
20260904200703 67 158 0.0 3.0 0.00 0.00 0.00 70 1085.2
20260904200603 67 157 1.0 3.0 0.00 0.00 0.00 70 1085.1
20260904200503 67 157 1.0 3.0 0.00 0.00 0.00 70 1085.0
20260904200403 32 0 0.0 0.0 0.00 0.00 0.00 1
20260904200303 32 0 0.0 0.0 0.00 0.00 0.00 1
20260904200203 32 0 0.0 0.0 0.00 0.00 0.00 1
20260904200018 67 155 1.0 3.0 0.00 0.00 0.00 71 1085.0
20260904200003 32 0 0.0 0.0 0.00 0.00 0.00 1
20260904195908 32 0 0.0 0.0 0.00 0.00 0.00 1
20260904195903 67 156 1.0 3.0 0.00 0.00 0.00 70 1084.9
20260904195703 67 152 2.0 6.0 0.00 0.00 0.00 70 1085.1
20260904195603 67 151 2.0 6.0 0.00 0.00 0.00 70 1085.0
20260904195503 67 151 2.0 6.0 0.00 0.00 0.00 70 1085.4
20260904195403 67 149 2.0 6.0 0.00 0.00 0.00 70 1085.2
20260904195305 32 0 0.0 0.0 0.00 0.00 0.00 1
20260904195204 32 0 0.0 0.0 0.00 0.00 0.00 1
20260904195103 32 0 0.0 0.0 0.00 0.00 0.00 1
20260904195003 32 0 0.0 0.0 0.00 0.00 0.00 1
20260904194908 67 147 2.0 6.0 0.00 0.00 0.00 71 1085.4
20260904194903 32 0 0.0 0.0 0.00 0.00 0.00 1
20260904194803 32 0 0.0 0.0 0.00 0.00 0.00 1
20260904194703 32 0 0.0 0.0 0.00 0.00 0.00 1
20260904194603 32 0 0.0 0.0 0.00 0.00 0.00 1
20260904194503 32 0 0.0 0.0 0.00 0.00 0.00 1
20260904194403 32 0 0.0 0.0 0.00 0.00 0.00 1
20260904194303 67 152 2.0 4.0 0.00 0.00 0.00 72 1085.1
20260904194204 67 149 2.0 6.0 0.00 0.00 0.00 72 1085.1
20260904194103 32 0 0.0 0.0 0.00 0.00 0.00 1
20260904194003 32 0 0.0 0.0 0.00 0.00 0.00 1
20260904193904 32 0 0.0 0.0 0.00 0.00 0.00 1
20260904193817 67 142 2.0 6.0 0.00 0.00 0.00 72 1085.1
20260904193803 32 0 0.0 0.0 0.00 0.00 0.00 1
20260904193703 32 0 0.0 0.0 0.00 0.00 0.00 1
20260904193603 32 0 0.0 0.0 0.00 0.00 0.00 1
20260904193503 32 0 0.0 0.0 0.00 0.00 0.00 1
20260904193403 32 0 0.0 0.0 0.00 0.00 0.00 1
20260904193303 66 132 3.0 7.0 0.00 0.00 0.00 73 1084.9
20260904193203 66 130 3.0 7.0 0.00 0.00 0.00 73 1085.2
20260904193103 66 128 3.0 7.0 0.00 0.00 0.00 73 1085.2
20260904193003 32 0 0.0 0.0 0.00 0.00 0.00 1
20260904192918 66 127 3.0 7.0 0.00 0.00 0.00 73 1085.2
20260904192903 32 0 0.0 0.0 0.00 0.00 0.00 1
20260904192803 32 0 0.0 0.0 0.00 0.00 0.00 1
20260904192703 32 0 0.0 0.0 0.00 0.00 0.00 1
20260904192603 32 0 0.0 0.0 0.00 0.00 0.00 1
20260904192503 32 0 0.0 0.0 0.00 0.00 0.00 1
20260904192414 32 0 0.0 0.0 0.00 0.00 0.00 1
20260904192403 66 133 2.0 7.0 0.00 0.00 0.00 74 1085.3
20260904192306 66 133 2.0 6.0 0.00 0.00 0.00 73 1085.1
20260904192103 32 0 0.0 0.0 0.00 0.00 0.00 1
20260904192003 32 0 0.0 0.0 0.00 0.00 0.00 1
20260904191903 66 144 1.0 3.0 0.00 0.00 0.00 72 1085.4
20260904191804 32 0 0.0 0.0 0.00 0.00 0.00 1
20260904191721 67 138 0.0 2.0 0.00 0.00 0.00 72 1085.6
20260904191703 32 0 0.0 0.0 0.00 0.00 0.00 1
20260904191603 32 0 0.0 0.0 0.00 0.00 0.00 1
20260904191508 32 0 0.0 0.0 0.00 0.00 0.00 1
20260904191403 67 0 0.0 0.0 0.00 0.00 0.00 72 1085.6
20260904191303 67 0 0.0 0.0 0.00 0.00 0.00 72 1085.5
20260904191203 67 0 0.0 0.0 0.00 0.00 0.00 72 1085.5